Wetterdaten: Mittwoch, 11.09.2013
Datum Zeit Temp. Aussen +5cm Feuchte Auss Luftdruck Regen Sonnenschein Regendauer UV Solar Windben
11.09.2013 00:00 11,4 C 10,0 C 97 % 1010,0 hPa 0,0 l/m 0 min 2 min 0,0 UV-I 0 W/m 28,3 km/h (4 Bft)
11.09.2013 00:02 11,5 C 10,0 C 97 % 1009,9 hPa 0,0 l/m 0 min 2 min 0,0 UV-I 0 W/m 7,7 km/h (2 Bft)
11.09.2013 00:06 11,5 C 10,0 C 97 % 1010,0 hPa 0,2 l/m 0 min 2 min 0,0 UV-I 0 W/m 25,7 km/h (4 Bft)
11.09.2013 00:08 11,5 C 10,0 C 97 % 1009,8 hPa 0,0 l/m 0 min 2 min 0,0 UV-I 0 W/m 28,3 km/h (4 Bft)
11.09.2013 00:10 11,6 C 10,6 C 97 % 1009,9 hPa 0,0 l/m 0 min 2 min 0,0 UV-I 0 W/m 20,6 km/h (4 Bft)
11.09.2013 00:12 11,6 C 10,6 C 97 % 1009,7 hPa 0,2 l/m 0 min 2 min 0,0 UV-I 0 W/m 12,9 km/h (3 Bft)
11.09.2013 00:14 11,6 C 10,6 C 97 % 1009,8 hPa 0,0 l/m 0 min 2 min 0,0 UV-I 0 W/m 15,4 km/h (3 Bft)
11.09.2013 00:16 11,6 C 10,6 C 97 % 1009,7 hPa 0,0 l/m 0 min 2 min 0,0 UV-I 0 W/m 12,9 km/h (3 Bft)
11.09.2013 00:18 11,6 C 10,6 C 97 % 1009,8 hPa 0,2 l/m 0 min 2 min 0,0 UV-I 0 W/m 23,2 km/h (4 Bft)
11.09.2013 00:20 11,6 C 10,0 C 97 % 1009,6 hPa 0,0 l/m 0 min 2 min 0,0 UV-I 0 W/m 36,0 km/h (5 Bft)
11.09.2013 00:22 11,6 C 10,0 C 97 % 1009,5 hPa 0,0 l/m 0 min 2 min 0,0 UV-I 0 W/m 33,5 km/h (5 Bft)
11.09.2013 00:24 11,6 C 10,6 C 97 % 1009,6 hPa 0,2 l/m 0 min 2 min 0,0 UV-I 0 W/m 10,3 km/h (2 Bft)
11.09.2013 00:26 11,6 C 10,6 C 97 % 1009,6 hPa 0,0 l/m 0 min 2 min 0,0 UV-I 0 W/m 36,0 km/h (5 Bft)
11.09.2013 00:28 11,6 C 10,6 C 97 % 1009,5 hPa 0,0 l/m 0 min 2 min 0,0 UV-I 0 W/m 10,3 km/h (2 Bft)
11.09.2013 00:30 11,6 C 10,6 C 97 % 1009,6 hPa 0,0 l/m 0 min 2 min 0,0 UV-I 0 W/m 12,9 km/h (3 Bft)
11.09.2013 00:32 11,6 C 10,6 C 97 % 1009,5 hPa 0,2 l/m 0 min 2 min 0,0 UV-I 0 W/m 25,7 km/h (4 Bft)
11.09.2013 00:34 11,6 C 10,6 C 97 % 1009,5 hPa 0,0 l/m 0 min 2 min 0,0 UV-I 0 W/m 18,0 km/h (3 Bft)
11.09.2013 00:36 11,6 C 10,6 C 97 % 1009,5 hPa 0,0 l/m 0 min 2 min 0,0 UV-I 0 W/m 12,9 km/h (3 Bft)
11.09.2013 00:38 11,6 C 10,6 C 97 % 1009,4 hPa 0,0 l/m 0 min 2 min 0,0 UV-I 0 W/m 12,9 km/h (3 Bft)
11.09.2013 00:40 11,6 C 10,6 C 97 % 1009,4 hPa 0,0 l/m 0 min 2 min 0,0 UV-I 0 W/m 10,3 km/h (2 Bft)
11.09.2013 00:42 11,6 C 10,6 C 97 % 1009,4 hPa 0,0 l/m 0 min 2 min 0,0 UV-I 0 W/m 10,3 km/h (2 Bft)
11.09.2013 00:44 11,7 C 10,6 C 97 % 1009,4 hPa 0,0 l/m 0 min 2 min 0,0 UV-I 0 W/m 20,6 km/h (4 Bft)
11.09.2013 00:46 11,7 C 10,6 C 97 % 1009,4 hPa 0,0 l/m 0 min 2 min 0,0 UV-I 0 W/m 36,0 km/h (5 Bft)
11.09.2013 00:48 11,7 C 10,6 C 97 % 1009,5 hPa 0,0 l/m 0 min 0 min 0,0 UV-I 0 W/m 7,7 km/h (2 Bft)
11.09.2013 00:50 11,7 C 10,6 C 97 % 1009,4 hPa 0,0 l/m 0 min 2 min 0,0 UV-I 0 W/m 15,4 km/h (3 Bft)
11.09.2013 00:52 11,7 C 10,6 C 97 % 1009,5 hPa 0,2 l/m 0 min 0 min 0,0 UV-I 0 W/m 12,9 km/h (3 Bft)
11.09.2013 00:54 11,7 C 10,6 C 97 % 1009,5 hPa 0,0 l/m 0 min 0 min 0,0 UV-I 0 W/m 18,0 km/h (3 Bft)
11.09.2013 00:56 11,7 C 10,6 C 97 % 1009,9 hPa 0,0 l/m 0 min 0 min 0,0 UV-I 0 W/m 18,0 km/h (3 Bft)
11.09.2013 00:58 11,7 C 10,6 C 97 % 1009,4 hPa 0,0 l/m 0 min 2 min 0,0 UV-I 0 W/m 15,4 km/h (3 Bft)
11.09.2013 01:00 11,8 C 10,6 C 97 % 1009,5 hPa 0,0 l/m 0 min 2 min 0,0 UV-I 0 W/m 12,9 km/h (3 Bft)
11.09.2013 01:02 11,8 C 10,6 C 97 % 1009,4 hPa 0,0 l/m 0 min 2 min 0,0 UV-I 0 W/m 18,0 km/h (3 Bft)
11.09.2013 01:06 11,8 C 10,6 C 97 % 1009,7 hPa 0,0 l/m 0 min 2 min 0,0 UV-I 0 W/m 25,7 km/h (4 Bft)
11.09.2013 01:08 11,8 C 10,6 C 97 % 1009,5 hPa 0,0 l/m 0 min 2 min 0,0 UV-I 0 W/m 28,3 km/h (4 Bft)
11.09.2013 01:10 11,8 C 10,6 C 97 % 1009,4 hPa 0,0 l/m 0 min 2 min 0,0 UV-I 0 W/m 20,6 km/h (4 Bft)
11.09.2013 01:12 11,8 C 10,6 C 97 % 1009,3 hPa 0,0 l/m 0 min 0 min 0,0 UV-I 0 W/m 28,3 km/h (4 Bft)
11.09.2013 01:14 11,8 C 10,6 C 97 % 1009,4 hPa 0,0 l/m 0 min 0 min 0,0 UV-I 0 W/m 20,6 km/h (4 Bft)
11.09.2013 01:16 11,8 C 10,6 C 97 % 1009,4 hPa 0,0 l/m 0 min 0 min 0,0 UV-I 0 W/m 18,0 km/h (3 Bft)
11.09.2013 01:18 11,9 C 10,6 C 97 % 1009,4 hPa 0,0 l/m 0 min 0 min 0,0 UV-I 0 W/m 10,3 km/h (2 Bft)
11.09.2013 01:20 11,8 C 10,6 C 97 % 1009,5 hPa 0,0 l/m 0 min 0 min 0,0 UV-I 0 W/m 15,4 km/h (3 Bft)
11.09.2013 01:22 11,9 C 10,6 C 97 % 1009,7 hPa 0,0 l/m 0 min 2 min 0,0 UV-I 0 W/m 25,7 km/h (4 Bft)
11.09.2013 01:24 11,9 C 10,6 C 97 % 1009,5 hPa 0,0 l/m 0 min 2 min 0,0 UV-I 0 W/m 23,2 km/h (4 Bft)
11.09.2013 01:26 11,9 C 10,6 C 97 % 1009,5 hPa 0,0 l/m 0 min 2 min 0,0 UV-I 0 W/m 7,7 km/h (2 Bft)
11.09.2013 01:28 11,9 C 10,6 C 97 % 1009,4 hPa 0,0 l/m 0 min 2 min 0,0 UV-I 0 W/m 28,3 km/h (4 Bft)
11.09.2013 01:30 11,9 C 10,6 C 97 % 1009,4 hPa 0,0 l/m 0 min 2 min 0,0 UV-I 0 W/m 12,9 km/h (3 Bft)
11.09.2013 01:32 11,9 C 10,6 C 97 % 1009,4 hPa 0,0 l/m 0 min 2 min 0,0 UV-I 0 W/m 12,9 km/h (3 Bft)
11.09.2013 01:34 11,9 C 10,6 C 97 % 1009,4 hPa 0,0 l/m 0 min 2 min 0,0 UV-I 0 W/m 15,4 km/h (3 Bft)
11.09.2013 01:36 11,9 C 10,6 C 97 % 1009,4 hPa 0,0 l/m 0 min 2 min 0,0 UV-I 0 W/m 12,9 km/h (3 Bft)
11.09.2013 01:38 11,9 C 10,6 C 97 % 1009,2 hPa 0,0 l/m 0 min 2 min 0,0 UV-I 0 W/m 33,5 km/h (5 Bft)
11.09.2013 01:40 11,9 C 10,6 C 97 % 1009,3 hPa 0,0 l/m 0 min 2 min 0,0 UV-I 0 W/m 12,9 km/h (3 Bft)
11.09.2013 01:42 11,9 C 10,6 C 97 % 1009,2 hPa 0,0 l/m 0 min 2 min 0,0 UV-I 0 W/m 15,4 km/h (3 Bft)
11.09.2013 01:44 11,9 C 10,6 C 98 % 1009,0 hPa 0,0 l/m 0 min 2 min 0,0 UV-I 0 W/m 30,9 km/h (5 Bft)
11.09.2013 01:46 11,9 C 10,6 C 98 % 1009,2 hPa 0,0 l/m 0 min 2 min 0,0 UV-I 0 W/m 7,7 km/h (2 Bft)
11.09.2013 01:48 11,9 C 10,6 C 98 % 1009,2 hPa 0,0 l/m 0 min 2 min 0,0 UV-I 0 W/m 15,4 km/h (3 Bft)
11.09.2013 01:50 11,9 C 10,6 C 98 % 1009,2 hPa 0,0 l/m 0 min 2 min 0,0 UV-I 0 W/m 18,0 km/h (3 Bft)
11.09.2013 01:52 11,9 C 10,6 C 98 % 1009,2 hPa 0,0 l/m 0 min 0 min 0,0 UV-I 0 W/m 15,4 km/h (3 Bft)
11.09.2013 01:54 11,9 C 10,6 C 98 % 1009,2 hPa 0,0 l/m 0 min 0 min 0,0 UV-I 0 W/m 2,6 km/h (1 Bft)
11.09.2013 01:56 11,9 C 10,6 C 98 % 1009,2 hPa 0,0 l/m 0 min 0 min 0,0 UV-I 0 W/m 28,3 km/h (4 Bft)
11.09.2013 01:58 11,9 C 10,6 C 98 % 1009,1 hPa 0,0 l/m 0 min 2 min 0,0 UV-I 0 W/m 12,9 km/h (3 Bft)
11.09.2013 02:00 11,9 C 10,6 C 98 % 1009,2 hPa 0,0 l/m 0 min 0 min 0,0 UV-I 0 W/m 7,7 km/h (2 Bft)
11.09.2013 02:02 11,9 C 10,6 C 98 % 1009,2 hPa 0,0 l/m 0 min 0 min 0,0 UV-I 0 W/m 20,6 km/h (4 Bft)
11.09.2013 02:06 11,9 C 10,6 C 98 % 1009,3 hPa 0,0 l/m 0 min 2 min 0,0 UV-I 0 W/m 20,6 km/h (4 Bft)
11.09.2013 02:08 12,0 C 10,6 C 98 % 1009,3 hPa 0,0 l/m 0 min 2 min 0,0 UV-I 0 W/m 18,0 km/h (3 Bft)
11.09.2013 02:10 12,0 C 10,6 C 98 % 1009,2 hPa 0,0 l/m 0 min 2 min 0,0 UV-I 0 W/m 18,0 km/h (3 Bft)
11.09.2013 02:12 12,0 C 10,6 C 97 % 1009,3 hPa 0,0 l/m 0 min 2 min 0,0 UV-I 0 W/m 15,4 km/h (3 Bft)
11.09.2013 02:14 12,0 C 10,6 C 97 % 1009,2 hPa 0,0 l/m 0 min 0 min 0,0 UV-I 0 W/m 12,9 km/h (3 Bft)
11.09.2013 02:16 12,0 C 10,6 C 97 % 1009,2 hPa 0,0 l/m 0 min 2 min 0,0 UV-I 0 W/m 18,0 km/h (3 Bft)
11.09.2013 02:18 12,0 C 10,6 C 97 % 1009,2 hPa 0,0 l/m 0 min 2 min 0,0 UV-I 0 W/m 15,4 km/h (3 Bft)
11.09.2013 02:20 12,0 C 10,6 C 97 % 1009,2 hPa 0,0 l/m 0 min 2 min 0,0 UV-I 0 W/m 12,9 km/h (3 Bft)
11.09.2013 02:22 12,0 C 10,6 C 97 % 1009,1 hPa 0,0 l/m 0 min 2 min 0,0 UV-I 0 W/m 30,9 km/h (5 Bft)
11.09.2013 02:24 12,0 C 10,6 C 97 % 1009,1 hPa 0,0 l/m 0 min 2 min 0,0 UV-I 0 W/m 10,3 km/h (2 Bft)
11.09.2013 02:26 12,0 C 10,6 C 97 % 1009,2 hPa 0,0 l/m 0 min 2 min 0,0 UV-I 0 W/m 15,4 km/h (3 Bft)
11.09.2013 02:28 12,0 C 10,6 C 97 % 1009,1 hPa 0,0 l/m 0 min 2 min 0,0 UV-I 0 W/m 20,6 km/h (4 Bft)
11.09.2013 02:30 12,0 C 10,6 C 97 % 1009,1 hPa 0,0 l/m 0 min 2 min 0,0 UV-I 0 W/m 23,2 km/h (4 Bft)
11.09.2013 02:32 12,0 C 10,6 C 97 % 1009,1 hPa 0,0 l/m 0 min 2 min 0,0 UV-I 0 W/m 20,6 km/h (4 Bft)
11.09.2013 02:34 12,0 C 10,6 C 97 % 1009,1 hPa 0,0 l/m 0 min 2 min 0,0 UV-I 0 W/m 5,1 km/h (1 Bft)
11.09.2013 02:36 12,0 C 10,6 C 97 % 1009,0 hPa 0,2 l/m 0 min 2 min 0,0 UV-I 0 W/m 10,3 km/h (2 Bft)
11.09.2013 02:38 12,0 C 10,6 C 97 % 1009,0 hPa 0,0 l/m 0 min 2 min 0,0 UV-I 0 W/m 15,4 km/h (3 Bft)
11.09.2013 02:40 11,9 C 10,6 C 97 % 1009,1 hPa 0,0 l/m 0 min 2 min 0,0 UV-I 0 W/m 20,6 km/h (4 Bft)
11.09.2013 02:42 11,9 C 10,6 C 97 % 1009,0 hPa 0,0 l/m 0 min 2 min 0,0 UV-I 0 W/m 28,3 km/h (4 Bft)
11.09.2013 02:44 11,9 C 10,6 C 97 % 1009,2 hPa 0,0 l/m 0 min 2 min 0,0 UV-I 0 W/m 30,9 km/h (5 Bft)
11.09.2013 02:46 11,9 C 10,6 C 97 % 1009,1 hPa 0,0 l/m 0 min 2 min 0,0 UV-I 0 W/m 12,9 km/h (3 Bft)
11.09.2013 02:48 11,9 C 10,6 C 97 % 1009,1 hPa 0,0 l/m 0 min 2 min 0,0 UV-I 0 W/m 18,0 km/h (3 Bft)
11.09.2013 02:50 11,9 C 10,6 C 97 % 1009,2 hPa 0,0 l/m 0 min 2 min 0,0 UV-I 0 W/m 28,3 km/h (4 Bft)
11.09.2013 02:52 11,9 C 10,6 C 97 % 1009,1 hPa 0,0 l/m 0 min 2 min 0,0 UV-I 0 W/m 7,7 km/h (2 Bft)
11.09.2013 02:54 12,0 C 10,6 C 97 % 1009,2 hPa 0,0 l/m 0 min 2 min 0,0 UV-I 0 W/m 7,7 km/h (2 Bft)
11.09.2013 02:56 11,9 C 10,6 C 97 % 1009,3 hPa 0,0 l/m 0 min 2 min 0,0 UV-I 0 W/m 20,6 km/h (4 Bft)
11.09.2013 02:58 11,9 C 10,6 C 97 % 1009,2 hPa 0,0 l/m 0 min 2 min 0,0 UV-I 0 W/m 18,0 km/h (3 Bft)
11.09.2013 03:00 11,9 C 10,6 C 97 % 1009,2 hPa 0,0 l/m 0 min 2 min 0,0 UV-I 0 W/m 10,3 km/h (2 Bft)
11.09.2013 03:02 11,9 C 10,6 C 97 % 1009,2 hPa 0,0 l/m 0 min 2 min 0,0 UV-I 0 W/m 10,3 km/h (2 Bft)
11.09.2013 03:06 11,9 C 10,6 C 97 % 1009,2 hPa 0,0 l/m 0 min 2 min 0,0 UV-I 0 W/m 12,9 km/h (3 Bft)
11.09.2013 03:08 11,9 C 10,6 C 97 % 1009,1 hPa 0,0 l/m 0 min 2 min 0,0 UV-I 0 W/m 7,7 km/h (2 Bft)
11.09.2013 03:10 11,9 C 10,6 C 97 % 1009,1 hPa 0,0 l/m 0 min 2 min 0,0 UV-I 0 W/m 18,0 km/h (3 Bft)
11.09.2013 03:12 11,9 C 10,6 C 97 % 1009,1 hPa 0,2 l/m 0 min 2 min 0,0 UV-I 0 W/m 28,3 km/h (4 Bft)
11.09.2013 03:14 11,9 C 10,6 C 97 % 1009,2 hPa 0,0 l/m 0 min 2 min 0,0 UV-I 0 W/m 10,3 km/h (2 Bft)
11.09.2013 03:16 11,9 C 10,6 C 97 % 1009,2 hPa 0,0 l/m 0 min 2 min 0,0 UV-I 0 W/m 18,0 km/h (3 Bft)
11.09.2013 03:18 11,9 C 10,6 C 97 % 1009,2 hPa 0,0 l/m 0 min 0 min 0,0 UV-I 0 W/m 15,4 km/h (3 Bft)
11.09.2013 03:20 11,9 C 10,6 C 97 % 1009,2 hPa 0,0 l/m 0 min 0 min 0,0 UV-I 0 W/m 5,1 km/h (1 Bft)
11.09.2013 03:22 11,9 C 10,6 C 97 % 1009,2 hPa 0,0 l/m 0 min 0 min 0,0 UV-I 0 W/m 10,3 km/h (2 Bft)
11.09.2013 03:24 11,9 C 10,6 C 97 % 1009,2 hPa 0,0 l/m 0 min 2 min 0,0 UV-I 0 W/m 5,1 km/h (1 Bft)
11.09.2013 03:26 11,9 C 10,6 C 97 % 1009,1 hPa 0,0 l/m 0 min 2 min 0,0 UV-I 0 W/m 15,4 km/h (3 Bft)
11.09.2013 03:28 11,9 C 10,6 C 97 % 1009,2 hPa 0,0 l/m 0 min 2 min 0,0 UV-I 0 W/m 12,9 km/h (3 Bft)
11.09.2013 03:30 11,9 C 10,6 C 97 % 1009,1 hPa 0,0 l/m 0 min 0 min 0,0 UV-I 0 W/m 15,4 km/h (3 Bft)
11.09.2013 03:32 11,9 C 10,6 C 97 % 1009,1 hPa 0,0 l/m 0 min 0 min 0,0 UV-I 0 W/m 2,6 km/h (1 Bft)
11.09.2013 03:34 11,8 C 10,6 C 97 % 1009,1 hPa 0,0 l/m 0 min 0 min 0,0 UV-I 0 W/m 15,4 km/h (3 Bft)
11.09.2013 03:36 11,8 C 10,6 C 97 % 1009,1 hPa 0,0 l/m 0 min 0 min 0,0 UV-I 0 W/m 10,3 km/h (2 Bft)
11.09.2013 03:38 11,8 C 10,6 C 97 % 1009,2 hPa 0,0 l/m 0 min 2 min 0,0 UV-I 0 W/m 10,3 km/h (2 Bft)
11.09.2013 03:40 11,8 C 10,6 C 97 % 1009,2 hPa 0,0 l/m 0 min 2 min 0,0 UV-I 0 W/m 0,0 km/h (0 Bft)
11.09.2013 03:42 11,8 C 10,6 C 97 % 1009,2 hPa 0,0 l/m 0 min 2 min 0,0 UV-I 0 W/m 10,3 km/h (2 Bft)
11.09.2013 03:44 11,8 C 10,6 C 97 % 1009,2 hPa 0,0 l/m 0 min 2 min 0,0 UV-I 0 W/m 2,6 km/h (1 Bft)
11.09.2013 03:46 11,8 C 10,6 C 97 % 1009,3 hPa 0,0 l/m 0 min 2 min 0,0 UV-I 0 W/m 10,3 km/h (2 Bft)
11.09.2013 03:48 11,8 C 10,6 C 97 % 1009,3 hPa 0,0 l/m 0 min 2 min 0,0 UV-I 0 W/m 2,6 km/h (1 Bft)
11.09.2013 03:50 11,8 C 10,6 C 97 % 1009,4 hPa 0,0 l/m 0 min 2 min 0,0 UV-I 0 W/m 2,6 km/h (1 Bft)
11.09.2013 03:52 11,8 C 10,6 C 97 % 1009,4 hPa 0,4 l/m 0 min 2 min 0,0 UV-I 0 W/m 15,4 km/h (3 Bft)
11.09.2013 03:54 11,8 C 10,6 C 97 % 1009,3 hPa 0,4 l/m 0 min 2 min 0,0 UV-I 0 W/m 10,3 km/h (2 Bft)
11.09.2013 03:56 11,8 C 10,6 C 97 % 1009,4 hPa 0,0 l/m 0 min 2 min 0,0 UV-I 0 W/m 23,2 km/h (4 Bft)
11.09.2013 03:58 11,8 C 10,6 C 97 % 1009,4 hPa 0,2 l/m 0 min 2 min 0,0 UV-I 0 W/m 18,0 km/h (3 Bft)
11.09.2013 04:00 11,8 C 10,6 C 97 % 1009,4 hPa 0,0 l/m 0 min 2 min 0,0 UV-I 0 W/m 7,7 km/h (2 Bft)
11.09.2013 04:02 11,8 C 10,6 C 97 % 1009,4 hPa 0,2 l/m 0 min 2 min 0,0 UV-I 0 W/m 12,9 km/h (3 Bft)
11.09.2013 04:06 11,8 C 10,6 C 97 % 1009,7 hPa 0,0 l/m 0 min 2 min 0,0 UV-I 0 W/m 12,9 km/h (3 Bft)
11.09.2013 04:08 11,8 C 10,6 C 97 % 1009,5 hPa 0,0 l/m 0 min 2 min 0,0 UV-I 0 W/m 7,7 km/h (2 Bft)
11.09.2013 04:10 11,8 C 10,6 C 97 % 1009,4 hPa 0,0 l/m 0 min 0 min 0,0 UV-I 0 W/m 10,3 km/h (2 Bft)
11.09.2013 04:12 11,7 C 10,6 C 98 % 1009,5 hPa 0,0 l/m 0 min 2 min 0,0 UV-I 0 W/m 10,3 km/h (2 Bft)
11.09.2013 04:14 11,7 C 10,6 C 98 % 1009,6 hPa 0,0 l/m 0 min 2 min 0,0 UV-I 0 W/m 12,9 km/h (3 Bft)
11.09.2013 04:16 11,7 C 10,6 C 98 % 1009,6 hPa 0,0 l/m 0 min 0 min 0,0 UV-I 0 W/m 12,9 km/h (3 Bft)
11.09.2013 04:18 11,8 C 10,6 C 98 % 1009,6 hPa 0,0 l/m 0 min 0 min 0,0 UV-I 0 W/m 5,1 km/h (1 Bft)
11.09.2013 04:20 11,8 C 10,6 C 98 % 1009,6 hPa 0,2 l/m 0 min 0 min 0,0 UV-I 0 W/m 10,3 km/h (2 Bft)
11.09.2013 04:22 11,7 C 10,6 C 98 % 1009,7 hPa 0,0 l/m 0 min 0 min 0,0 UV-I 0 W/m 10,3 km/h (2 Bft)
11.09.2013 04:24 11,7 C 10,6 C 98 % 1009,7 hPa 0,0 l/m 0 min 2 min 0,0 UV-I 0 W/m 0,0 km/h (0 Bft)
11.09.2013 04:26 11,7 C 10,6 C 98 % 1009,7 hPa 0,0 l/m 0 min 2 min 0,0 UV-I 0 W/m 0,0 km/h (0 Bft)
11.09.2013 04:28 11,8 C 10,6 C 98 % 1009,6 hPa 0,0 l/m 0 min 0 min 0,0 UV-I 0 W/m 2,6 km/h (1 Bft)
11.09.2013 04:30 11,8 C 10,6 C 98 % 1009,7 hPa 0,0 l/m 0 min 2 min 0,0 UV-I 0 W/m 0,0 km/h (0 Bft)
11.09.2013 04:32 11,8 C 10,6 C 98 % 1009,7 hPa 0,0 l/m 0 min 2 min 0,0 UV-I 0 W/m 0,0 km/h (0 Bft)
11.09.2013 04:34 11,8 C 10,6 C 98 % 1009,7 hPa 0,0 l/m 0 min 2 min 0,0 UV-I 0 W/m 0,0 km/h (0 Bft)
11.09.2013 04:36 11,8 C 10,6 C 98 % 1009,8 hPa 0,0 l/m 0 min 2 min 0,0 UV-I 0 W/m 0,0 km/h (0 Bft)
11.09.2013 04:38 11,8 C 10,6 C 98 % 1009,8 hPa 0,0 l/m 0 min 2 min 0,0 UV-I 0 W/m 0,0 km/h (0 Bft)
11.09.2013 04:40 11,8 C 10,6 C 98 % 1009,9 hPa 0,0 l/m 0 min 2 min 0,0 UV-I 0 W/m 0,0 km/h (0 Bft)
11.09.2013 04:42 11,8 C 10,6 C 98 % 1009,9 hPa 0,0 l/m 0 min 2 min 0,0 UV-I 0 W/m 0,0 km/h (0 Bft)
11.09.2013 04:44 11,8 C 10,6 C 98 % 1009,9 hPa 0,2 l/m 0 min 2 min 0,0 UV-I 0 W/m 7,7 km/h (2 Bft)
11.09.2013 04:46 11,8 C 10,6 C 98 % 1009,9 hPa 0,0 l/m 0 min 2 min 0,0 UV-I 0 W/m 0,0 km/h (0 Bft)
11.09.2013 04:48 11,8 C 10,6 C 98 % 1009,9 hPa 0,0 l/m 0 min 2 min 0,0 UV-I 0 W/m 0,0 km/h (0 Bft)
11.09.2013 04:50 11,8 C 10,6 C 98 % 1009,9 hPa 0,0 l/m 0 min 2 min 0,0 UV-I 0 W/m 0,0 km/h (0 Bft)
11.09.2013 04:52 11,8 C 10,6 C 98 % 1009,9 hPa 0,0 l/m 0 min 2 min 0,0 UV-I 0 W/m 0,0 km/h (0 Bft)
11.09.2013 04:54 11,8 C 10,6 C 98 % 1009,9 hPa 0,2 l/m 0 min 2 min 0,0 UV-I 0 W/m 2,6 km/h (1 Bft)
11.09.2013 04:56 11,8 C 10,6 C 98 % 1010,0 hPa 0,0 l/m 0 min 2 min 0,0 UV-I 0 W/m 0,0 km/h (0 Bft)
11.09.2013 04:58 11,8 C 10,6 C 98 % 1010,0 hPa 0,0 l/m 0 min 2 min 0,0 UV-I 0 W/m 5,1 km/h (1 Bft)
11.09.2013 05:00 11,8 C 10,6 C 98 % 1010,0 hPa 0,0 l/m 0 min 2 min 0,0 UV-I 0 W/m 7,7 km/h (2 Bft)
11.09.2013 05:02 11,8 C 10,6 C 98 % 1010,0 hPa 0,0 l/m 0 min 0 min 0,0 UV-I 0 W/m 2,6 km/h (1 Bft)
11.09.2013 05:06 11,8 C 10,6 C 98 % 1009,9 hPa 0,0 l/m 0 min 0 min 0,0 UV-I 0 W/m 7,7 km/h (2 Bft)
11.09.2013 05:08 11,8 C 10,6 C 98 % 1010,0 hPa 0,0 l/m 0 min 0 min 0,0 UV-I 0 W/m 2,6 km/h (1 Bft)
11.09.2013 05:10 11,7 C 10,6 C 98 % 1010,0 hPa 0,0 l/m 0 min 0 min 0,0 UV-I 0 W/m 0,0 km/h (0 Bft)
11.09.2013 05:12 11,7 C 10,6 C 98 % 1009,9 hPa 0,0 l/m 0 min 0 min 0,0 UV-I 0 W/m 2,6 km/h (1 Bft)
11.09.2013 05:14 11,7 C 10,6 C 98 % 1010,0 hPa 0,0 l/m 0 min 0 min 0,0 UV-I 0 W/m 0,0 km/h (0 Bft)
11.09.2013 05:16 11,7 C 10,6 C 98 % 1010,0 hPa 0,0 l/m 0 min 0 min 0,0 UV-I 0 W/m 7,7 km/h (2 Bft)
11.09.2013 05:18 11,7 C 10,6 C 98 % 1010,0 hPa 0,0 l/m 0 min 0 min 0,0 UV-I 0 W/m 0,0 km/h (0 Bft)
11.09.2013 05:20 11,7 C 10,6 C 98 % 1010,0 hPa 0,0 l/m 0 min 0 min 0,0 UV-I 0 W/m 0,0 km/h (0 Bft)
11.09.2013 05:22 11,7 C 10,6 C 98 % 1010,0 hPa 0,0 l/m 0 min 0 min 0,0 UV-I 0 W/m 0,0 km/h (0 Bft)
11.09.2013 05:24 11,7 C 10,6 C 98 % 1010,0 hPa 0,0 l/m 0 min 0 min 0,0 UV-I 0 W/m 0,0 km/h (0 Bft)
11.09.2013 05:26 11,7 C 10,6 C 98 % 1010,1 hPa 0,0 l/m 0 min 0 min 0,0 UV-I 0 W/m 0,0 km/h (0 Bft)
11.09.2013 05:28 11,7 C 10,6 C 98 % 1010,1 hPa 0,0 l/m 0 min 0 min 0,0 UV-I 0 W/m 0,0 km/h (0 Bft)
11.09.2013 05:30 11,7 C 10,6 C 98 % 1010,1 hPa 0,0 l/m 0 min 0 min 0,0 UV-I 0 W/m 0,0 km/h (0 Bft)
11.09.2013 05:32 11,7 C 10,6 C 98 % 1010,2 hPa 0,0 l/m 0 min 0 min 0,0 UV-I 0 W/m 0,0 km/h (0 Bft)
11.09.2013 05:34 11,7 C 10,6 C 98 % 1010,2 hPa 0,0 l/m 0 min 0 min 0,0 UV-I 0 W/m 0,0 km/h (0 Bft)
11.09.2013 05:36 11,7 C 10,6 C 98 % 1010,1 hPa 0,0 l/m 0 min 0 min 0,0 UV-I 0 W/m 2,6 km/h (1 Bft)
11.09.2013 05:38 11,7 C 10,6 C 98 % 1010,1 hPa 0,0 l/m 0 min 0 min 0,0 UV-I 0 W/m 0,0 km/h (0 Bft)
11.09.2013 05:40 11,7 C 10,6 C 98 % 1010,1 hPa 0,0 l/m 0 min 0 min 0,0 UV-I 0 W/m 0,0 km/h (0 Bft)
11.09.2013 05:42 11,7 C 10,6 C 98 % 1010,1 hPa 0,0 l/m 0 min 0 min 0,0 UV-I 0 W/m 0,0 km/h (0 Bft)
11.09.2013 05:44 11,7 C 10,6 C 98 % 1010,1 hPa 0,0 l/m 0 min 0 min 0,0 UV-I 0 W/m 7,7 km/h (2 Bft)
11.09.2013 05:46 11,7 C 10,6 C 98 % 1010,1 hPa 0,0 l/m 0 min 0 min 0,0 UV-I 0 W/m 0,0 km/h (0 Bft)
11.09.2013 05:48 11,7 C 10,6 C 98 % 1010,2 hPa 0,0 l/m 0 min 0 min 0,0 UV-I 0 W/m 0,0 km/h (0 Bft)
11.09.2013 05:50 11,7 C 10,6 C 98 % 1010,2 hPa 0,0 l/m 0 min 0 min 0,0 UV-I 0 W/m 0,0 km/h (0 Bft)
11.09.2013 05:52 11,7 C 10,6 C 98 % 1010,2 hPa 0,0 l/m 0 min 0 min 0,0 UV-I 0 W/m 0,0 km/h (0 Bft)
11.09.2013 05:54 11,7 C 10,6 C 98 % 1010,3 hPa 0,0 l/m 0 min 0 min 0,0 UV-I 0 W/m 0,0 km/h (0 Bft)
11.09.2013 05:56 11,7 C 10,6 C 98 % 1010,3 hPa 0,0 l/m 0 min 0 min 0,0 UV-I 0 W/m 2,6 km/h (1 Bft)
11.09.2013 05:58 11,7 C 10,6 C 98 % 1010,3 hPa 0,0 l/m 0 min 0 min 0,0 UV-I 0 W/m 0,0 km/h (0 Bft)
11.09.2013 06:00 11,7 C 10,6 C 98 % 1010,4 hPa 0,0 l/m 0 min 0 min 0,0 UV-I 0 W/m 0,0 km/h (0 Bft)
11.09.2013 06:02 11,7 C 10,6 C 98 % 1010,4 hPa 0,0 l/m 0 min 0 min 0,0 UV-I 0 W/m 0,0 km/h (0 Bft)
11.09.2013 06:06 11,7 C 10,6 C 98 % 1010,4 hPa 0,0 l/m 0 min 0 min 0,0 UV-I 0 W/m 2,6 km/h (1 Bft)
11.09.2013 06:08 11,7 C 10,6 C 98 % 1010,4 hPa 0,0 l/m 0 min 0 min 0,0 UV-I 0 W/m 0,0 km/h (0 Bft)
11.09.2013 06:10 11,7 C 10,6 C 98 % 1010,4 hPa 0,0 l/m 0 min 0 min 0,0 UV-I 0 W/m 0,0 km/h (0 Bft)
11.09.2013 06:12 11,6 C 10,6 C 98 % 1010,4 hPa 0,0 l/m 0 min 0 min 0,0 UV-I 0 W/m 0,0 km/h (0 Bft)
11.09.2013 06:14 11,6 C 10,6 C 98 % 1010,4 hPa 0,0 l/m 0 min 0 min 0,0 UV-I 0 W/m 2,6 km/h (1 Bft)
11.09.2013 06:16 11,6 C 10,6 C 98 % 1010,4 hPa 0,0 l/m 0 min 0 min 0,0 UV-I 0 W/m 0,0 km/h (0 Bft)
11.09.2013 06:18 11,6 C 10,6 C 98 % 1010,4 hPa 0,0 l/m 0 min 0 min 0,0 UV-I 0 W/m 0,0 km/h (0 Bft)
11.09.2013 06:20 11,5 C 10,0 C 98 % 1010,4 hPa 0,0 l/m 0 min 0 min 0,0 UV-I 0 W/m 0,0 km/h (0 Bft)
11.09.2013 06:22 11,4 C 10,0 C 98 % 1010,4 hPa 0,0 l/m 0 min 0 min 0,0 UV-I 0 W/m 0,0 km/h (0 Bft)
11.09.2013 06:24 11,4 C 10,0 C 98 % 1010,5 hPa 0,0 l/m 0 min 0 min 0,0 UV-I 0 W/m 0,0 km/h (0 Bft)
11.09.2013 06:26 11,4 C 10,0 C 98 % 1010,6 hPa 0,0 l/m 0 min 0 min 0,0 UV-I 0 W/m 0,0 km/h (0 Bft)
11.09.2013 06:28 11,3 C 10,0 C 99 % 1010,7 hPa 0,0 l/m 0 min 0 min 0,0 UV-I 0 W/m 0,0 km/h (0 Bft)
11.09.2013 06:30 11,3 C 10,0 C 99 % 1010,6 hPa 0,0 l/m 0 min 0 min 0,0 UV-I 0 W/m 2,6 km/h (1 Bft)
11.09.2013 06:32 11,3 C 10,0 C 99 % 1010,7 hPa 0,0 l/m 0 min 0 min 0,0 UV-I 0 W/m 0,0 km/h (0 Bft)
11.09.2013 06:34 11,3 C 10,0 C 99 % 1010,7 hPa 0,0 l/m 0 min 0 min 0,0 UV-I 0 W/m 0,0 km/h (0 Bft)
11.09.2013 06:36 11,3 C 10,0 C 99 % 1010,8 hPa 0,0 l/m 0 min 0 min 0,0 UV-I 0 W/m 0,0 km/h (0 Bft)
11.09.2013 06:38 11,3 C 10,0 C 98 % 1010,8 hPa 0,0 l/m 0 min 0 min 0,0 UV-I 0 W/m 0,0 km/h (0 Bft)
11.09.2013 06:40 11,3 C 10,0 C 98 % 1010,8 hPa 0,0 l/m 0 min 0 min 0,0 UV-I 0 W/m 0,0 km/h (0 Bft)
11.09.2013 06:42 11,2 C 10,0 C 98 % 1010,9 hPa 0,0 l/m 0 min 0 min 0,0 UV-I 0 W/m 2,6 km/h (1 Bft)
11.09.2013 06:44 11,2 C 10,0 C 98 % 1011,0 hPa 0,0 l/m 0 min 0 min 0,0 UV-I 0 W/m 0,0 km/h (0 Bft)
11.09.2013 06:46 11,2 C 10,0 C 98 % 1011,0 hPa 0,0 l/m 0 min 0 min 0,0 UV-I 0 W/m 0,0 km/h (0 Bft)
11.09.2013 06:48 11,1 C 10,0 C 98 % 1011,1 hPa 0,0 l/m 0 min 0 min 0,0 UV-I 0 W/m 0,0 km/h (0 Bft)
11.09.2013 06:50 11,1 C 10,0 C 99 % 1011,2 hPa 0,0 l/m 0 min 0 min 0,0 UV-I 0 W/m 0,0 km/h (0 Bft)
11.09.2013 06:52 11,1 C 10,0 C 99 % 1011,2 hPa 0,0 l/m 0 min 0 min 0,0 UV-I 0 W/m 0,0 km/h (0 Bft)
11.09.2013 06:54 11,0 C 10,0 C 99 % 1011,3 hPa 0,0 l/m 0 min 0 min 0,0 UV-I 0 W/m 0,0 km/h (0 Bft)
11.09.2013 06:56 10,9 C 9,4 C 98 % 1011,2 hPa 0,0 l/m 0 min 0 min 0,0 UV-I 0 W/m 0,0 km/h (0 Bft)
11.09.2013 06:58 10,9 C 9,4 C 98 % 1011,2 hPa 0,0 l/m 0 min 0 min 0,0 UV-I 0 W/m 0,0 km/h (0 Bft)
11.09.2013 07:00 10,8 C 9,4 C 98 % 1011,3 hPa 0,0 l/m 0 min 0 min 0,0 UV-I 0 W/m 0,0 km/h (0 Bft)
11.09.2013 07:02 10,7 C 9,4 C 98 % 1011,4 hPa 0,0 l/m 0 min 0 min 0,0 UV-I 0 W/m 0,0 km/h (0 Bft)
11.09.2013 07:06 10,7 C 9,4 C 99 % 1011,5 hPa 0,0 l/m 0 min 0 min 0,0 UV-I 0 W/m 0,0 km/h (0 Bft)
11.09.2013 07:08 10,6 C 9,4 C 98 % 1011,4 hPa 0,0 l/m 0 min 0 min 0,0 UV-I 5 W/m 0,0 km/h (0 Bft)
11.09.2013 07:10 10,6 C 9,4 C 98 % 1011,5 hPa 0,0 l/m 0 min 0 min 0,0 UV-I 5 W/m 0,0 km/h (0 Bft)
11.09.2013 07:12 10,6 C 9,4 C 98 % 1011,5 hPa 0,0 l/m 0 min 0 min 0,0 UV-I 5 W/m 0,0 km/h (0 Bft)
11.09.2013 07:14 10,6 C 9,4 C 98 % 1011,5 hPa 0,0 l/m 0 min 0 min 0,0 UV-I 5 W/m 0,0 km/h (0 Bft)
11.09.2013 07:16 10,7 C 9,4 C 98 % 1011,7 hPa 0,0 l/m 0 min 0 min 0,0 UV-I 5 W/m 0,0 km/h (0 Bft)
11.09.2013 07:18 10,7 C 9,4 C 99 % 1011,7 hPa 0,0 l/m 0 min 0 min 0,0 UV-I 5 W/m 0,0 km/h (0 Bft)
11.09.2013 07:20 10,7 C 9,4 C 99 % 1011,7 hPa 0,0 l/m 0 min 2 min 0,0 UV-I 7 W/m 0,0 km/h (0 Bft)
11.09.2013 07:22 10,7 C 9,4 C 99 % 1011,8 hPa 0,2 l/m 0 min 2 min 0,0 UV-I 7 W/m 0,0 km/h (0 Bft)
11.09.2013 07:24 10,7 C 10,0 C 99 % 1011,9 hPa 0,0 l/m 0 min 2 min 0,0 UV-I 9 W/m 0,0 km/h (0 Bft)
11.09.2013 07:26 10,7 C 10,0 C 99 % 1011,9 hPa 0,0 l/m 0 min 0 min 0,0 UV-I 11 W/m 0,0 km/h (0 Bft)
11.09.2013 07:28 10,7 C 10,0 C 99 % 1011,8 hPa 0,0 l/m 0 min 0 min 0,0 UV-I 12 W/m 0,0 km/h (0 Bft)
11.09.2013 07:30 10,7 C 10,0 C 99 % 1011,9 hPa 0,0 l/m 0 min 0 min 0,0 UV-I 14 W/m 0,0 km/h (0 Bft)
11.09.2013 07:32 10,8 C 10,0 C 99 % 1011,9 hPa 0,0 l/m 0 min 0 min 0,0 UV-I 18 W/m 0,0 km/h (0 Bft)
11.09.2013 07:34 10,8 C 10,0 C 99 % 1011,9 hPa 0,0 l/m 0 min 0 min 0,0 UV-I 12 W/m 0,0 km/h (0 Bft)
11.09.2013 07:36 10,8 C 10,0 C 99 % 1012,0 hPa 0,0 l/m 0 min 0 min 0,0 UV-I 16 W/m 0,0 km/h (0 Bft)
11.09.2013 07:38 10,8 C 10,0 C 99 % 1011,9 hPa 0,0 l/m 0 min 0 min 0,0 UV-I 23 W/m 0,0 km/h (0 Bft)
11.09.2013 07:40 10,8 C 10,0 C 99 % 1011,9 hPa 0,0 l/m 0 min 0 min 0,0 UV-I 19 W/m 0,0 km/h (0 Bft)
11.09.2013 07:42 10,8 C 10,0 C 99 % 1011,9 hPa 0,0 l/m 0 min 0 min 0,0 UV-I 16 W/m 0,0 km/h (0 Bft)
11.09.2013 07:44 10,8 C 10,0 C 99 % 1011,9 hPa 0,0 l/m 0 min 0 min 0,0 UV-I 18 W/m 0,0 km/h (0 Bft)
11.09.2013 07:46 10,7 C 9,4 C 99 % 1012,0 hPa 0,0 l/m 0 min 0 min 0,0 UV-I 18 W/m 2,6 km/h (1 Bft)
11.09.2013 07:48 10,7 C 9,4 C 99 % 1012,1 hPa 0,0 l/m 0 min 0 min 0,0 UV-I 16 W/m 0,0 km/h (0 Bft)
11.09.2013 07:50 10,7 C 9,4 C 99 % 1012,1 hPa 0,0 l/m 0 min 0 min 0,0 UV-I 19 W/m 0,0 km/h (0 Bft)
11.09.2013 07:52 10,7 C 9,4 C 98 % 1012,1 hPa 0,0 l/m 0 min 0 min 0,0 UV-I 26 W/m 0,0 km/h (0 Bft)
11.09.2013 07:54 10,7 C 10,0 C 99 % 1012,1 hPa 0,0 l/m 0 min 0 min 0,0 UV-I 26 W/m 0,0 km/h (0 Bft)
11.09.2013 07:56 10,7 C 10,0 C 99 % 1012,1 hPa 0,0 l/m 0 min 0 min 0,0 UV-I 33 W/m 2,6 km/h (1 Bft)
11.09.2013 07:58 10,8 C 10,0 C 99 % 1012,2 hPa 0,0 l/m 0 min 0 min 0,0 UV-I 37 W/m 5,1 km/h (1 Bft)
11.09.2013 08:00 10,8 C 10,0 C 99 % 1012,2 hPa 0,0 l/m 0 min 0 min 0,0 UV-I 37 W/m 0,0 km/h (0 Bft)
11.09.2013 08:02 10,8 C 10,0 C 99 % 1012,1 hPa 0,0 l/m 0 min 0 min 0,0 UV-I 49 W/m 0,0 km/h (0 Bft)
11.09.2013 08:06 10,8 C 10,0 C 99 % 1012,1 hPa 0,0 l/m 0 min 0 min 0,0 UV-I 44 W/m 0,0 km/h (0 Bft)
11.09.2013 08:08 10,8 C 10,0 C 99 % 1012,2 hPa 0,0 l/m 0 min 0 min 0,0 UV-I 53 W/m 0,0 km/h (0 Bft)
11.09.2013 08:10 10,8 C 10,0 C 99 % 1012,2 hPa 0,0 l/m 0 min 0 min 0,0 UV-I 58 W/m 0,0 km/h (0 Bft)
11.09.2013 08:12 10,8 C 10,0 C 99 % 1012,2 hPa 0,0 l/m 2 min 0 min 0,0 UV-I 113 W/m 0,0 km/h (0 Bft)
11.09.2013 08:14 10,9 C 10,0 C 99 % 1012,2 hPa 0,0 l/m 0 min 0 min 0,0 UV-I 39 W/m 0,0 km/h (0 Bft)
11.09.2013 08:16 11,0 C 10,6 C 99 % 1012,3 hPa 0,0 l/m 0 min 0 min 0,0 UV-I 30 W/m 0,0 km/h (0 Bft)
11.09.2013 08:18 11,1 C 10,6 C 99 % 1012,4 hPa 0,0 l/m 0 min 0 min 0,0 UV-I 26 W/m 0,0 km/h (0 Bft)
11.09.2013 08:20 11,1 C 10,6 C 99 % 1012,4 hPa 0,0 l/m 0 min 0 min 0,0 UV-I 23 W/m 0,0 km/h (0 Bft)
11.09.2013 08:22 11,1 C 10,6 C 99 % 1012,5 hPa 0,0 l/m 0 min 0 min 0,0 UV-I 16 W/m 0,0 km/h (0 Bft)
11.09.2013 08:24 11,2 C 10,6 C 99 % 1012,5 hPa 0,0 l/m 0 min 0 min 0,0 UV-I 26 W/m 0,0 km/h (0 Bft)
11.09.2013 08:26 11,2 C 10,6 C 99 % 1012,4 hPa 0,0 l/m 0 min 0 min 0,0 UV-I 32 W/m 0,0 km/h (0 Bft)
11.09.2013 08:28 11,2 C 10,6 C 99 % 1012,4 hPa 0,0 l/m 0 min 0 min 0,0 UV-I 30 W/m 0,0 km/h (0 Bft)
11.09.2013 08:30 11,2 C 10,6 C 99 % 1012,3 hPa 0,0 l/m 0 min 0 min 0,0 UV-I 32 W/m 0,0 km/h (0 Bft)
11.09.2013 08:32 11,2 C 10,6 C 99 % 1012,4 hPa 0,0 l/m 0 min 0 min 0,0 UV-I 33 W/m 0,0 km/h (0 Bft)
11.09.2013 08:34 11,3 C 10,6 C 99 % 1012,4 hPa 0,0 l/m 0 min 0 min 0,0 UV-I 39 W/m 0,0 km/h (0 Bft)
11.09.2013 08:36 11,3 C 10,6 C 99 % 1012,4 hPa 0,0 l/m 0 min 0 min 0,0 UV-I 39 W/m 0,0 km/h (0 Bft)
11.09.2013 08:38 11,3 C 10,6 C 99 % 1012,4 hPa 0,0 l/m 0 min 0 min 0,0 UV-I 30 W/m 7,7 km/h (2 Bft)
11.09.2013 08:40 11,3 C 10,6 C 99 % 1012,5 hPa 0,0 l/m 0 min 0 min 0,0 UV-I 37 W/m 2,6 km/h (1 Bft)
11.09.2013 08:42 11,3 C 10,6 C 99 % 1012,5 hPa 0,0 l/m 0 min 0 min 0,0 UV-I 40 W/m 0,0 km/h (0 Bft)
11.09.2013 08:44 11,4 C 10,6 C 99 % 1012,4 hPa 0,0 l/m 0 min 0 min 0,0 UV-I 47 W/m 5,1 km/h (1 Bft)
11.09.2013 08:46 11,4 C 10,6 C 99 % 1012,4 hPa 0,0 l/m 0 min 0 min 0,0 UV-I 39 W/m 0,0 km/h (0 Bft)
11.09.2013 08:48 11,4 C 10,6 C 99 % 1012,5 hPa 0,0 l/m 0 min 0 min 0,0 UV-I 42 W/m 0,0 km/h (0 Bft)
11.09.2013 08:50 11,4 C 10,6 C 99 % 1012,5 hPa 0,0 l/m 0 min 0 min 0,0 UV-I 46 W/m 0,0 km/h (0 Bft)
11.09.2013 08:52 11,5 C 10,6 C 99 % 1012,5 hPa 0,0 l/m 0 min 0 min 0,0 UV-I 44 W/m 0,0 km/h (0 Bft)
11.09.2013 08:54 11,5 C 10,6 C 99 % 1012,5 hPa 0,0 l/m 0 min 0 min 0,0 UV-I 44 W/m 2,6 km/h (1 Bft)
11.09.2013 08:56 11,5 C 10,6 C 99 % 1012,5 hPa 0,0 l/m 0 min 0 min 0,0 UV-I 46 W/m 0,0 km/h (0 Bft)
11.09.2013 08:58 11,5 C 10,6 C 99 % 1012,5 hPa 0,0 l/m 0 min 0 min 0,0 UV-I 42 W/m 2,6 km/h (1 Bft)
11.09.2013 09:00 11,5 C 10,6 C 99 % 1012,5 hPa 0,0 l/m 0 min 0 min 0,0 UV-I 51 W/m 2,6 km/h (1 Bft)
11.09.2013 09:02 11,5 C 10,6 C 99 % 1012,5 hPa 0,0 l/m 0 min 0 min 0,0 UV-I 63 W/m 5,1 km/h (1 Bft)
11.09.2013 09:06 11,7 C 11,1 C 99 % 1012,5 hPa 0,0 l/m 0 min 0 min 0,0 UV-I 62 W/m 5,1 km/h (1 Bft)
11.09.2013 09:08 11,7 C 11,1 C 99 % 1012,6 hPa 0,0 l/m 0 min 0 min 0,0 UV-I 86 W/m 0,0 km/h (0 Bft)
11.09.2013 09:10 11,7 C 11,1 C 99 % 1012,7 hPa 0,0 l/m 0 min 0 min 0,0 UV-I 79 W/m 7,7 km/h (2 Bft)
11.09.2013 09:12 11,8 C 11,1 C 99 % 1012,7 hPa 0,0 l/m 0 min 0 min 0,0 UV-I 67 W/m 0,0 km/h (0 Bft)
11.09.2013 09:14 11,8 C 11,1 C 99 % 1012,7 hPa 0,0 l/m 0 min 0 min 0,0 UV-I 70 W/m 0,0 km/h (0 Bft)
11.09.2013 09:16 11,8 C 11,1 C 99 % 1012,6 hPa 0,0 l/m 0 min 0 min 0,0 UV-I 83 W/m 5,1 km/h (1 Bft)
11.09.2013 09:18 11,8 C 11,1 C 99 % 1012,6 hPa 0,0 l/m 0 min 0 min 0,0 UV-I 97 W/m 10,3 km/h (2 Bft)
11.09.2013 09:20 11,8 C 11,1 C 99 % 1012,7 hPa 0,0 l/m 0 min 0 min 0,0 UV-I 118 W/m 0,0 km/h (0 Bft)
11.09.2013 09:22 11,9 C 11,7 C 99 % 1012,7 hPa 0,0 l/m 0 min 0 min 0,0 UV-I 121 W/m 0,0 km/h (0 Bft)
11.09.2013 09:24 11,9 C 11,7 C 99 % 1012,8 hPa 0,0 l/m 0 min 0 min 0,0 UV-I 135 W/m 0,0 km/h (0 Bft)
11.09.2013 09:26 12,1 C 11,7 C 99 % 1012,8 hPa 0,0 l/m 0 min 0 min 0,0 UV-I 116 W/m 0,0 km/h (0 Bft)
11.09.2013 09:28 12,2 C 11,7 C 99 % 1012,8 hPa 0,0 l/m 0 min 0 min 0,0 UV-I 137 W/m 0,0 km/h (0 Bft)
11.09.2013 09:30 12,1 C 11,7 C 99 % 1012,8 hPa 0,0 l/m 0 min 0 min 0,0 UV-I 105 W/m 0,0 km/h (0 Bft)
11.09.2013 09:32 12,1 C 11,7 C 99 % 1012,8 hPa 0,0 l/m 0 min 0 min 0,0 UV-I 120 W/m 5,1 km/h (1 Bft)
11.09.2013 09:34 12,2 C 11,7 C 99 % 1012,8 hPa 0,0 l/m 0 min 0 min 0,0 UV-I 105 W/m 0,0 km/h (0 Bft)
11.09.2013 09:36 12,2 C 11,7 C 99 % 1012,7 hPa 0,0 l/m 0 min 0 min 0,0 UV-I 65 W/m 0,0 km/h (0 Bft)
11.09.2013 09:38 12,2 C 11,7 C 99 % 1012,8 hPa 0,0 l/m 0 min 0 min 0,0 UV-I 58 W/m 5,1 km/h (1 Bft)
11.09.2013 09:40 12,1 C 11,7 C 99 % 1012,8 hPa 0,0 l/m 0 min 0 min 0,0 UV-I 83 W/m 2,6 km/h (1 Bft)
11.09.2013 09:42 12,1 C 11,7 C 99 % 1012,8 hPa 0,0 l/m 0 min 0 min 0,0 UV-I 84 W/m 2,6 km/h (1 Bft)
11.09.2013 09:44 12,1 C 11,1 C 99 % 1012,8 hPa 0,0 l/m 0 min 0 min 0,0 UV-I 97 W/m 0,0 km/h (0 Bft)
11.09.2013 09:46 12,1 C 11,7 C 99 % 1012,8 hPa 0,0 l/m 0 min 0 min 0,0 UV-I 116 W/m 0,0 km/h (0 Bft)
11.09.2013 09:48 12,2 C 11,7 C 99 % 1012,8 hPa 0,0 l/m 0 min 0 min 0,0 UV-I 197 W/m 0,0 km/h (0 Bft)
11.09.2013 09:50 12,4 C 11,7 C 99 % 1012,9 hPa 0,0 l/m 0 min 0 min 0,0 UV-I 186 W/m 0,0 km/h (0 Bft)
11.09.2013 09:52 12,4 C 12,2 C 99 % 1013,0 hPa 0,0 l/m 0 min 0 min 0,0 UV-I 181 W/m 0,0 km/h (0 Bft)
11.09.2013 09:54 12,6 C 12,2 C 99 % 1012,9 hPa 0,0 l/m 0 min 0 min 0,0 UV-I 146 W/m 0,0 km/h (0 Bft)
11.09.2013 09:56 12,7 C 12,2 C 99 % 1012,9 hPa 0,0 l/m 0 min 0 min 0,0 UV-I 79 W/m 2,6 km/h (1 Bft)
11.09.2013 09:58 12,6 C 11,7 C 99 % 1012,9 hPa 0,0 l/m 0 min 0 min 0,0 UV-I 84 W/m 0,0 km/h (0 Bft)
11.09.2013 10:00 12,6 C 11,7 C 99 % 1012,9 hPa 0,0 l/m 0 min 0 min 0,0 UV-I 139 W/m 12,9 km/h (3 Bft)
11.09.2013 10:02 12,6 C 12,2 C 99 % 1012,9 hPa 0,0 l/m 0 min 0 min 0,0 UV-I 186 W/m 0,0 km/h (0 Bft)
11.09.2013 10:06 12,8 C 12,2 C 99 % 1013,0 hPa 0,0 l/m 2 min 0 min 0,0 UV-I 278 W/m 15,4 km/h (3 Bft)
11.09.2013 10:08 12,9 C 12,8 C 99 % 1013,1 hPa 0,0 l/m 0 min 0 min 0,0 UV-I 232 W/m 5,1 km/h (1 Bft)
11.09.2013 10:10 13,0 C 12,2 C 99 % 1013,0 hPa 0,0 l/m 0 min 0 min 0,0 UV-I 178 W/m 7,7 km/h (2 Bft)
11.09.2013 10:12 13,0 C 12,2 C 99 % 1013,0 hPa 0,0 l/m 0 min 0 min 0,0 UV-I 197 W/m 0,0 km/h (0 Bft)
11.09.2013 10:14 13,1 C 12,2 C 99 % 1012,9 hPa 0,0 l/m 0 min 0 min 0,0 UV-I 195 W/m 0,0 km/h (0 Bft)
11.09.2013 10:16 13,1 C 12,2 C 99 % 1012,9 hPa 0,0 l/m 0 min 0 min 0,0 UV-I 167 W/m 0,0 km/h (0 Bft)
11.09.2013 10:18 13,2 C 12,2 C 99 % 1012,9 hPa 0,0 l/m 0 min 0 min 0,0 UV-I 127 W/m 0,0 km/h (0 Bft)
11.09.2013 10:20 13,2 C 12,2 C 99 % 1012,9 hPa 0,0 l/m 0 min 0 min 0,0 UV-I 111 W/m 5,1 km/h (1 Bft)
11.09.2013 10:22 13,1 C 12,2 C 99 % 1012,9 hPa 0,0 l/m 0 min 0 min 0,0 UV-I 98 W/m 0,0 km/h (0 Bft)
11.09.2013 10:24 13,1 C 12,2 C 99 % 1013,0 hPa 0,0 l/m 0 min 0 min 0,0 UV-I 84 W/m 2,6 km/h (1 Bft)
11.09.2013 10:26 13,1 C 12,2 C 99 % 1013,1 hPa 0,0 l/m 0 min 0 min 0,0 UV-I 90 W/m 0,0 km/h (0 Bft)
11.09.2013 10:28 13,1 C 12,2 C 99 % 1013,1 hPa 0,0 l/m 0 min 0 min 0,0 UV-I 93 W/m 7,7 km/h (2 Bft)
11.09.2013 10:30 13,0 C 12,2 C 99 % 1013,1 hPa 0,0 l/m 0 min 0 min 0,0 UV-I 113 W/m 0,0 km/h (0 Bft)
11.09.2013 10:32 13,0 C 12,2 C 99 % 1013,1 hPa 0,0 l/m 0 min 0 min 0,0 UV-I 134 W/m 7,7 km/h (2 Bft)
11.09.2013 10:34 13,0 C 12,2 C 99 % 1013,1 hPa 0,0 l/m 0 min 0 min 0,0 UV-I 163 W/m 2,6 km/h (1 Bft)
11.09.2013 10:36 13,1 C 12,2 C 99 % 1013,1 hPa 0,0 l/m 0 min 0 min 0,0 UV-I 195 W/m 7,7 km/h (2 Bft)
11.09.2013 10:38 13,2 C 12,2 C 99 % 1013,1 hPa 0,0 l/m 0 min 0 min 0,0 UV-I 188 W/m 2,6 km/h (1 Bft)
11.09.2013 10:40 13,3 C 12,8 C 99 % 1013,1 hPa 0,0 l/m 0 min 0 min 0,0 UV-I 172 W/m 0,0 km/h (0 Bft)
11.09.2013 10:42 13,4 C 12,8 C 98 % 1013,1 hPa 0,0 l/m 0 min 0 min 0,5 UV-I 186 W/m 5,1 km/h (1 Bft)
11.09.2013 10:44 13,5 C 12,8 C 99 % 1013,0 hPa 0,0 l/m 0 min 0 min 0,6 UV-I 204 W/m 5,1 km/h (1 Bft)
11.09.2013 10:46 13,6 C 12,8 C 98 % 1013,0 hPa 0,0 l/m 0 min 0 min 0,7 UV-I 251 W/m 7,7 km/h (2 Bft)
11.09.2013 10:48 13,5 C 12,8 C 98 % 1013,0 hPa 0,0 l/m 0 min 0 min 0,9 UV-I 271 W/m 10,3 km/h (2 Bft)
11.09.2013 10:50 13,7 C 13,3 C 98 % 1013,0 hPa 0,0 l/m 2 min 0 min 0,6 UV-I 387 W/m 7,7 km/h (2 Bft)
11.09.2013 10:52 13,8 C 12,8 C 98 % 1013,0 hPa 0,0 l/m 0 min 0 min 0,5 UV-I 190 W/m 0,0 km/h (0 Bft)
11.09.2013 10:54 13,9 C 13,3 C 98 % 1013,1 hPa 0,0 l/m 0 min 2 min 0,5 UV-I 193 W/m 0,0 km/h (0 Bft)
11.09.2013 10:56 13,9 C 13,3 C 98 % 1013,0 hPa 0,0 l/m 0 min 0 min 0,5 UV-I 193 W/m 12,9 km/h (3 Bft)
11.09.2013 10:58 13,8 C 13,3 C 98 % 1013,0 hPa 0,0 l/m 0 min 0 min 0,5 UV-I 206 W/m 7,7 km/h (2 Bft)
11.09.2013 11:00 13,9 C 13,3 C 98 % 1013,1 hPa 0,0 l/m 0 min 0 min 0,5 UV-I 209 W/m 0,0 km/h (0 Bft)
11.09.2013 11:02 14,1 C 13,3 C 97 % 1013,0 hPa 0,0 l/m 0 min 0 min 0,6 UV-I 218 W/m 0,0 km/h (0 Bft)
11.09.2013 11:06 14,1 C 13,3 C 97 % 1013,0 hPa 0,0 l/m 0 min 0 min 0,8 UV-I 234 W/m 2,6 km/h (1 Bft)
11.09.2013 11:08 14,2 C 13,3 C 97 % 1013,0 hPa 0,0 l/m 0 min 0 min 0,8 UV-I 262 W/m 2,6 km/h (1 Bft)
11.09.2013 11:10 14,2 C 13,9 C 97 % 1013,0 hPa 0,0 l/m 0 min 0 min 0,8 UV-I 269 W/m 0,0 km/h (0 Bft)
11.09.2013 11:12 14,3 C 13,9 C 97 % 1013,0 hPa 0,0 l/m 0 min 0 min 0,7 UV-I 246 W/m 5,1 km/h (1 Bft)
11.09.2013 11:14 14,3 C 13,9 C 97 % 1012,9 hPa 0,0 l/m 0 min 0 min 0,0 UV-I 190 W/m 7,7 km/h (2 Bft)
11.09.2013 11:16 14,4 C 13,9 C 97 % 1013,0 hPa 0,0 l/m 0 min 0 min 0,0 UV-I 171 W/m 2,6 km/h (1 Bft)
11.09.2013 11:18 14,3 C 13,3 C 96 % 1012,9 hPa 0,0 l/m 0 min 0 min 0,0 UV-I 174 W/m 2,6 km/h (1 Bft)
11.09.2013 11:20 14,3 C 13,3 C 96 % 1013,0 hPa 0,0 l/m 0 min 0 min 0,0 UV-I 162 W/m 5,1 km/h (1 Bft)
11.09.2013 11:22 14,4 C 13,3 C 96 % 1013,0 hPa 0,0 l/m 0 min 0 min 0,0 UV-I 141 W/m 10,3 km/h (2 Bft)
11.09.2013 11:24 14,4 C 13,3 C 96 % 1013,0 hPa 0,0 l/m 0 min 0 min 0,0 UV-I 151 W/m 12,9 km/h (3 Bft)
11.09.2013 11:26 14,4 C 13,3 C 96 % 1012,9 hPa 0,0 l/m 0 min 0 min 0,5 UV-I 181 W/m 0,0 km/h (0 Bft)
11.09.2013 11:28 14,4 C 13,9 C 95 % 1012,9 hPa 0,0 l/m 0 min 0 min 0,6 UV-I 197 W/m 0,0 km/h (0 Bft)
11.09.2013 11:30 14,5 C 13,9 C 95 % 1012,9 hPa 0,0 l/m 0 min 0 min 0,7 UV-I 204 W/m 7,7 km/h (2 Bft)
11.09.2013 11:32 14,5 C 13,9 C 96 % 1013,0 hPa 0,0 l/m 0 min 0 min 0,6 UV-I 199 W/m 7,7 km/h (2 Bft)
11.09.2013 11:34 14,6 C 13,9 C 96 % 1013,0 hPa 0,0 l/m 0 min 0 min 0,9 UV-I 232 W/m 7,7 km/h (2 Bft)
11.09.2013 11:36 14,7 C 13,9 C 95 % 1013,0 hPa 0,0 l/m 0 min 0 min 1,0 UV-I 258 W/m 10,3 km/h (2 Bft)
11.09.2013 11:38 14,7 C 13,9 C 95 % 1013,0 hPa 0,0 l/m 0 min 0 min 1,1 UV-I 260 W/m 10,3 km/h (2 Bft)
11.09.2013 11:40 14,9 C 14,4 C 95 % 1012,9 hPa 0,0 l/m 0 min 0 min 1,1 UV-I 264 W/m 0,0 km/h (0 Bft)
11.09.2013 11:42 14,9 C 14,4 C 95 % 1012,9 hPa 0,0 l/m 0 min 0 min 1,1 UV-I 258 W/m 10,3 km/h (2 Bft)
11.09.2013 11:44 14,9 C 14,4 C 95 % 1012,9 hPa 0,0 l/m 0 min 0 min 1,3 UV-I 306 W/m 10,3 km/h (2 Bft)
11.09.2013 11:46 15,0 C 14,4 C 95 % 1012,9 hPa 0,0 l/m 0 min 0 min 1,3 UV-I 323 W/m 10,3 km/h (2 Bft)
11.09.2013 11:48 15,2 C 15,0 C 95 % 1012,9 hPa 0,0 l/m 0 min 0 min 1,3 UV-I 322 W/m 0,0 km/h (0 Bft)
11.09.2013 11:50 15,3 C 15,0 C 95 % 1012,8 hPa 0,0 l/m 0 min 0 min 1,3 UV-I 271 W/m 10,3 km/h (2 Bft)
11.09.2013 11:52 15,3 C 15,0 C 94 % 1012,8 hPa 0,0 l/m 0 min 0 min 1,1 UV-I 301 W/m 10,3 km/h (2 Bft)
11.09.2013 11:54 15,3 C 15,0 C 94 % 1012,8 hPa 0,0 l/m 0 min 0 min 1,5 UV-I 237 W/m 2,6 km/h (1 Bft)
11.09.2013 11:56 15,4 C 15,0 C 94 % 1012,8 hPa 0,0 l/m 2 min 0 min 1,5 UV-I 369 W/m 7,7 km/h (2 Bft)
11.09.2013 11:58 15,6 C 15,6 C 94 % 1012,8 hPa 0,0 l/m 2 min 0 min 1,8 UV-I 369 W/m 10,3 km/h (2 Bft)
11.09.2013 12:00 15,6 C 15,0 C 93 % 1012,7 hPa 0,0 l/m 2 min 0 min 1,9 UV-I 360 W/m 5,1 km/h (1 Bft)
11.09.2013 12:02 15,8 C 15,6 C 93 % 1012,7 hPa 0,0 l/m 2 min 0 min 1,9 UV-I 531 W/m 5,1 km/h (1 Bft)
11.09.2013 12:06 16,2 C 16,1 C 93 % 1012,7 hPa 0,0 l/m 2 min 0 min 1,4 UV-I 371 W/m 12,9 km/h (3 Bft)
11.09.2013 12:08 16,2 C 15,6 C 92 % 1012,7 hPa 0,0 l/m 0 min 0 min 0,7 UV-I 171 W/m 12,9 km/h (3 Bft)
11.09.2013 12:10 16,1 C 15,6 C 91 % 1012,8 hPa 0,0 l/m 0 min 0 min 1,4 UV-I 311 W/m 0,0 km/h (0 Bft)
11.09.2013 12:12 16,1 C 15,6 C 91 % 1012,8 hPa 0,0 l/m 0 min 0 min 1,5 UV-I 311 W/m 12,9 km/h (3 Bft)
11.09.2013 12:14 16,2 C 15,6 C 91 % 1012,7 hPa 0,0 l/m 0 min 0 min 1,0 UV-I 257 W/m 10,3 km/h (2 Bft)
11.09.2013 12:16 16,2 C 15,6 C 91 % 1012,7 hPa 0,0 l/m 0 min 0 min 1,3 UV-I 297 W/m 5,1 km/h (1 Bft)
11.09.2013 12:18 16,2 C 15,6 C 91 % 1012,7 hPa 0,0 l/m 0 min 0 min 2,0 UV-I 308 W/m 10,3 km/h (2 Bft)
11.09.2013 12:20 16,4 C 16,1 C 91 % 1012,7 hPa 0,0 l/m 2 min 0 min 1,8 UV-I 512 W/m 7,7 km/h (2 Bft)
11.09.2013 12:22 16,4 C 16,1 C 90 % 1012,6 hPa 0,0 l/m 0 min 0 min 1,0 UV-I 315 W/m 12,9 km/h (3 Bft)
11.09.2013 12:24 16,4 C 16,1 C 91 % 1012,6 hPa 0,0 l/m 0 min 0 min 0,5 UV-I 169 W/m 10,3 km/h (2 Bft)
11.09.2013 12:26 16,4 C 15,6 C 90 % 1012,6 hPa 0,0 l/m 0 min 0 min 0,5 UV-I 179 W/m 10,3 km/h (2 Bft)
11.09.2013 12:28 16,3 C 15,6 C 90 % 1012,6 hPa 0,0 l/m 0 min 0 min 1,2 UV-I 209 W/m 15,4 km/h (3 Bft)
11.09.2013 12:30 16,3 C 15,6 C 90 % 1012,6 hPa 0,0 l/m 0 min 0 min 2,1 UV-I 276 W/m 10,3 km/h (2 Bft)
11.09.2013 12:32 16,4 C 16,1 C 90 % 1012,7 hPa 0,0 l/m 0 min 0 min 2,0 UV-I 276 W/m 10,3 km/h (2 Bft)
11.09.2013 12:34 16,6 C 16,7 C 90 % 1012,6 hPa 0,0 l/m 2 min 0 min 2,1 UV-I 541 W/m 10,3 km/h (2 Bft)
11.09.2013 12:36 16,8 C 16,7 C 89 % 1012,6 hPa 0,0 l/m 2 min 0 min 1,4 UV-I 541 W/m 7,7 km/h (2 Bft)
11.09.2013 12:38 16,9 C 16,7 C 88 % 1012,7 hPa 0,0 l/m 2 min 0 min 1,4 UV-I 429 W/m 10,3 km/h (2 Bft)
11.09.2013 12:40 16,9 C 16,1 C 88 % 1012,7 hPa 0,0 l/m 0 min 0 min 1,6 UV-I 260 W/m 15,4 km/h (3 Bft)
11.09.2013 12:42 17,0 C 16,7 C 88 % 1012,6 hPa 0,0 l/m 0 min 0 min 2,6 UV-I 260 W/m 7,7 km/h (2 Bft)
11.09.2013 12:44 17,2 C 16,7 C 87 % 1012,7 hPa 0,0 l/m 2 min 0 min 2,6 UV-I 705 W/m 12,9 km/h (3 Bft)
11.09.2013 12:46 17,4 C 16,7 C 86 % 1012,6 hPa 0,0 l/m 2 min 0 min 2,5 UV-I 705 W/m 18,0 km/h (3 Bft)
11.09.2013 12:48 17,8 C 17,2 C 86 % 1012,6 hPa 0,0 l/m 2 min 0 min 2,1 UV-I 786 W/m 15,4 km/h (3 Bft)
11.09.2013 12:50 17,8 C 17,2 C 84 % 1012,6 hPa 0,0 l/m 2 min 0 min 1,8 UV-I 786 W/m 12,9 km/h (3 Bft)
11.09.2013 12:52 17,7 C 16,7 C 83 % 1012,6 hPa 0,0 l/m 0 min 0 min 1,6 UV-I 271 W/m 12,9 km/h (3 Bft)
11.09.2013 12:54 17,4 C 16,1 C 83 % 1012,5 hPa 0,0 l/m 0 min 0 min 1,8 UV-I 287 W/m 12,9 km/h (3 Bft)
11.09.2013 12:56 17,4 C 16,7 C 84 % 1012,5 hPa 0,0 l/m 2 min 0 min 1,7 UV-I 663 W/m 12,9 km/h (3 Bft)
11.09.2013 12:58 17,6 C 16,7 C 83 % 1012,5 hPa 0,0 l/m 2 min 0 min 1,7 UV-I 668 W/m 18,0 km/h (3 Bft)
11.09.2013 13:00 17,6 C 16,7 C 82 % 1012,5 hPa 0,0 l/m 2 min 0 min 1,7 UV-I 663 W/m 23,2 km/h (4 Bft)
11.09.2013 13:02 17,8 C 16,7 C 82 % 1012,4 hPa 0,0 l/m 2 min 0 min 1,7 UV-I 654 W/m 12,9 km/h (3 Bft)
11.09.2013 13:06 18,1 C 16,7 C 80 % 1012,4 hPa 0,0 l/m 0 min 0 min 1,6 UV-I 216 W/m 18,0 km/h (3 Bft)
11.09.2013 13:08 18,0 C 16,7 C 80 % 1012,4 hPa 0,0 l/m 0 min 0 min 1,7 UV-I 248 W/m 15,4 km/h (3 Bft)
11.09.2013 13:10 17,9 C 16,7 C 80 % 1012,4 hPa 0,0 l/m 0 min 0 min 1,6 UV-I 248 W/m 5,1 km/h (1 Bft)
11.09.2013 13:12 17,9 C 16,7 C 81 % 1012,3 hPa 0,0 l/m 2 min 0 min 1,8 UV-I 761 W/m 7,7 km/h (2 Bft)
11.09.2013 13:14 18,2 C 17,2 C 82 % 1012,4 hPa 0,0 l/m 2 min 0 min 1,3 UV-I 766 W/m 5,1 km/h (1 Bft)
11.09.2013 13:16 18,3 C 17,2 C 80 % 1012,4 hPa 0,0 l/m 0 min 0 min 0,8 UV-I 162 W/m 7,7 km/h (2 Bft)
11.09.2013 13:18 18,2 C 16,7 C 80 % 1012,4 hPa 0,0 l/m 0 min 0 min 0,7 UV-I 155 W/m 10,3 km/h (2 Bft)
11.09.2013 13:20 17,9 C 16,7 C 80 % 1012,3 hPa 0,0 l/m 0 min 2 min 1,3 UV-I 241 W/m 20,6 km/h (4 Bft)
11.09.2013 13:22 17,7 C 16,7 C 82 % 1012,4 hPa 0,0 l/m 0 min 0 min 1,3 UV-I 278 W/m 0,0 km/h (0 Bft)
11.09.2013 13:24 17,6 C 16,7 C 82 % 1012,4 hPa 0,0 l/m 0 min 0 min 1,4 UV-I 306 W/m 0,0 km/h (0 Bft)
11.09.2013 13:26 17,6 C 16,7 C 82 % 1012,4 hPa 0,0 l/m 0 min 0 min 1,2 UV-I 279 W/m 2,6 km/h (1 Bft)
11.09.2013 13:28 17,5 C 16,7 C 81 % 1012,4 hPa 0,0 l/m 0 min 0 min 1,1 UV-I 251 W/m 18,0 km/h (3 Bft)
11.09.2013 13:30 17,5 C 16,7 C 81 % 1012,3 hPa 0,0 l/m 0 min 0 min 1,1 UV-I 262 W/m 0,0 km/h (0 Bft)
11.09.2013 13:32 17,5 C 16,7 C 82 % 1012,4 hPa 0,0 l/m 0 min 0 min 0,9 UV-I 248 W/m 0,0 km/h (0 Bft)
11.09.2013 13:34 17,6 C 16,7 C 82 % 1012,3 hPa 0,0 l/m 0 min 0 min 0,7 UV-I 206 W/m 0,0 km/h (0 Bft)
11.09.2013 13:36 17,6 C 16,7 C 81 % 1012,3 hPa 0,0 l/m 0 min 0 min 0,7 UV-I 200 W/m 0,0 km/h (0 Bft)
11.09.2013 13:38 17,6 C 16,7 C 81 % 1012,4 hPa 0,0 l/m 0 min 0 min 1,1 UV-I 236 W/m 12,9 km/h (3 Bft)
11.09.2013 13:40 17,6 C 16,7 C 81 % 1012,4 hPa 0,0 l/m 0 min 0 min 1,3 UV-I 267 W/m 12,9 km/h (3 Bft)
11.09.2013 13:42 17,6 C 17,2 C 80 % 1012,4 hPa 0,0 l/m 0 min 0 min 1,4 UV-I 290 W/m 10,3 km/h (2 Bft)
11.09.2013 13:44 17,6 C 17,2 C 80 % 1012,4 hPa 0,0 l/m 0 min 0 min 1,5 UV-I 311 W/m 5,1 km/h (1 Bft)
11.09.2013 13:46 17,7 C 17,2 C 80 % 1012,4 hPa 0,0 l/m 0 min 0 min 1,6 UV-I 332 W/m 10,3 km/h (2 Bft)
11.09.2013 13:48 17,7 C 17,2 C 79 % 1012,5 hPa 0,0 l/m 0 min 0 min 1,6 UV-I 343 W/m 7,7 km/h (2 Bft)
11.09.2013 13:50 17,8 C 17,2 C 81 % 1012,4 hPa 0,0 l/m 0 min 0 min 1,6 UV-I 332 W/m 5,1 km/h (1 Bft)
11.09.2013 13:52 17,8 C 17,2 C 80 % 1012,4 hPa 0,0 l/m 0 min 0 min 1,8 UV-I 353 W/m 12,9 km/h (3 Bft)
11.09.2013 13:54 17,8 C 17,8 C 80 % 1012,4 hPa 0,0 l/m 2 min 0 min 1,9 UV-I 401 W/m 0,0 km/h (0 Bft)
11.09.2013 13:56 18,0 C 17,8 C 81 % 1012,4 hPa 0,0 l/m 2 min 0 min 1,9 UV-I 441 W/m 10,3 km/h (2 Bft)
11.09.2013 13:58 18,2 C 17,8 C 80 % 1012,3 hPa 0,0 l/m 0 min 0 min 1,5 UV-I 350 W/m 5,1 km/h (1 Bft)
11.09.2013 14:00 18,2 C 17,8 C 78 % 1012,4 hPa 0,0 l/m 0 min 0 min 1,6 UV-I 299 W/m 0,0 km/h (0 Bft)
11.09.2013 14:02 18,2 C 17,8 C 78 % 1012,3 hPa 0,0 l/m 0 min 0 min 1,7 UV-I 323 W/m 15,4 km/h (3 Bft)
11.09.2013 14:06 18,0 C 17,2 C 78 % 1012,3 hPa 0,0 l/m 0 min 0 min 1,5 UV-I 297 W/m 12,9 km/h (3 Bft)
11.09.2013 14:08 18,0 C 17,2 C 77 % 1012,4 hPa 0,0 l/m 0 min 0 min 1,4 UV-I 257 W/m 5,1 km/h (1 Bft)
11.09.2013 14:10 18,0 C 17,2 C 76 % 1012,3 hPa 0,0 l/m 0 min 0 min 1,2 UV-I 181 W/m 10,3 km/h (2 Bft)
11.09.2013 14:12 17,9 C 16,7 C 77 % 1012,2 hPa 0,0 l/m 0 min 0 min 1,3 UV-I 149 W/m 7,7 km/h (2 Bft)
11.09.2013 14:14 17,8 C 16,7 C 77 % 1012,3 hPa 0,0 l/m 0 min 0 min 2,8 UV-I 158 W/m 12,9 km/h (3 Bft)
11.09.2013 14:16 17,9 C 16,7 C 77 % 1012,2 hPa 0,0 l/m 2 min 0 min 3,0 UV-I 715 W/m 2,6 km/h (1 Bft)
11.09.2013 14:18 18,3 C 17,2 C 78 % 1012,3 hPa 0,0 l/m 2 min 0 min 3,0 UV-I 712 W/m 15,4 km/h (3 Bft)
11.09.2013 14:20 18,7 C 17,2 C 77 % 1012,3 hPa 0,0 l/m 2 min 0 min 3,0 UV-I 701 W/m 7,7 km/h (2 Bft)
11.09.2013 14:22 19,1 C 17,8 C 75 % 1012,3 hPa 0,0 l/m 2 min 0 min 3,1 UV-I 707 W/m 30,9 km/h (5 Bft)
11.09.2013 14:24 19,1 C 17,8 C 74 % 1012,4 hPa 0,0 l/m 2 min 0 min 3,2 UV-I 777 W/m 15,4 km/h (3 Bft)
11.09.2013 14:26 19,4 C 18,3 C 75 % 1012,4 hPa 0,0 l/m 2 min 0 min 2,0 UV-I 766 W/m 7,7 km/h (2 Bft)
11.09.2013 14:28 19,6 C 18,9 C 73 % 1012,4 hPa 0,0 l/m 2 min 0 min 2,7 UV-I 766 W/m 10,3 km/h (2 Bft)
11.09.2013 14:30 19,4 C 18,3 C 72 % 1012,3 hPa 0,0 l/m 0 min 0 min 1,5 UV-I 353 W/m 10,3 km/h (2 Bft)
11.09.2013 14:32 19,3 C 18,3 C 71 % 1012,4 hPa 0,0 l/m 0 min 0 min 1,1 UV-I 287 W/m 10,3 km/h (2 Bft)
11.09.2013 14:34 19,1 C 18,3 C 70 % 1012,4 hPa 0,0 l/m 0 min 0 min 1,0 UV-I 237 W/m 18,0 km/h (3 Bft)
11.09.2013 14:36 18,9 C 17,8 C 71 % 1012,3 hPa 0,0 l/m 0 min 0 min 0,5 UV-I 176 W/m 10,3 km/h (2 Bft)
11.09.2013 14:38 18,7 C 17,2 C 73 % 1012,3 hPa 0,0 l/m 0 min 0 min 0,0 UV-I 128 W/m 10,3 km/h (2 Bft)
11.09.2013 14:40 18,5 C 17,2 C 73 % 1012,3 hPa 0,0 l/m 0 min 0 min 0,0 UV-I 114 W/m 7,7 km/h (2 Bft)
11.09.2013 14:42 18,4 C 17,2 C 74 % 1012,4 hPa 0,0 l/m 0 min 0 min 0,7 UV-I 141 W/m 0,0 km/h (0 Bft)
11.09.2013 14:44 18,3 C 17,2 C 75 % 1012,3 hPa 0,0 l/m 0 min 0 min 0,8 UV-I 156 W/m 0,0 km/h (0 Bft)
11.09.2013 14:46 18,2 C 17,2 C 75 % 1012,3 hPa 0,0 l/m 0 min 0 min 0,7 UV-I 134 W/m 15,4 km/h (3 Bft)
11.09.2013 14:48 18,2 C 16,7 C 74 % 1012,3 hPa 0,0 l/m 0 min 0 min 0,8 UV-I 141 W/m 0,0 km/h (0 Bft)
11.09.2013 14:50 18,1 C 16,7 C 75 % 1012,1 hPa 0,0 l/m 0 min 0 min 1,0 UV-I 162 W/m 2,6 km/h (1 Bft)
11.09.2013 14:52 18,1 C 16,7 C 74 % 1012,2 hPa 0,0 l/m 0 min 0 min 1,3 UV-I 214 W/m 18,0 km/h (3 Bft)
11.09.2013 14:54 18,1 C 17,2 C 74 % 1012,2 hPa 0,0 l/m 0 min 0 min 1,4 UV-I 250 W/m 12,9 km/h (3 Bft)
11.09.2013 14:56 18,2 C 17,2 C 76 % 1012,3 hPa 0,0 l/m 0 min 0 min 1,4 UV-I 241 W/m 0,0 km/h (0 Bft)
11.09.2013 14:58 18,2 C 17,2 C 77 % 1012,3 hPa 0,0 l/m 0 min 0 min 1,3 UV-I 216 W/m 7,7 km/h (2 Bft)
11.09.2013 15:00 18,3 C 17,2 C 75 % 1012,3 hPa 0,0 l/m 0 min 0 min 1,4 UV-I 253 W/m 20,6 km/h (4 Bft)
11.09.2013 15:02 18,3 C 17,2 C 74 % 1012,1 hPa 0,0 l/m 0 min 0 min 1,5 UV-I 288 W/m 10,3 km/h (2 Bft)
11.09.2013 15:06 18,5 C 17,8 C 75 % 1012,2 hPa 0,0 l/m 2 min 0 min 2,2 UV-I 501 W/m 18,0 km/h (3 Bft)
11.09.2013 15:08 18,7 C 17,8 C 73 % 1012,1 hPa 0,0 l/m 2 min 0 min 2,1 UV-I 568 W/m 20,6 km/h (4 Bft)
11.09.2013 15:10 18,8 C 17,8 C 70 % 1012,1 hPa 0,0 l/m 2 min 0 min 2,0 UV-I 452 W/m 15,4 km/h (3 Bft)
11.09.2013 15:12 18,8 C 17,8 C 69 % 1012,1 hPa 0,0 l/m 2 min 0 min 2,0 UV-I 506 W/m 10,3 km/h (2 Bft)
11.09.2013 15:14 18,9 C 17,8 C 69 % 1012,1 hPa 0,0 l/m 2 min 0 min 1,6 UV-I 457 W/m 10,3 km/h (2 Bft)
11.09.2013 15:16 18,8 C 17,8 C 68 % 1012,0 hPa 0,0 l/m 2 min 0 min 1,6 UV-I 388 W/m 28,3 km/h (4 Bft)
11.09.2013 15:18 18,7 C 17,8 C 70 % 1012,0 hPa 0,0 l/m 2 min 0 min 2,0 UV-I 455 W/m 5,1 km/h (1 Bft)
11.09.2013 15:20 18,9 C 17,8 C 70 % 1012,0 hPa 0,0 l/m 2 min 0 min 2,3 UV-I 638 W/m 15,4 km/h (3 Bft)
11.09.2013 15:22 19,1 C 18,3 C 70 % 1012,0 hPa 0,0 l/m 2 min 0 min 2,4 UV-I 649 W/m 2,6 km/h (1 Bft)
11.09.2013 15:24 19,2 C 18,3 C 68 % 1012,0 hPa 0,0 l/m 2 min 0 min 2,2 UV-I 626 W/m 25,7 km/h (4 Bft)
11.09.2013 15:26 19,3 C 18,3 C 69 % 1012,0 hPa 0,0 l/m 2 min 0 min 2,1 UV-I 626 W/m 25,7 km/h (4 Bft)
11.09.2013 15:28 19,2 C 18,3 C 69 % 1012,0 hPa 0,0 l/m 0 min 0 min 1,3 UV-I 255 W/m 15,4 km/h (3 Bft)
11.09.2013 15:30 19,2 C 18,3 C 70 % 1012,1 hPa 0,0 l/m 2 min 0 min 1,6 UV-I 452 W/m 5,1 km/h (1 Bft)
11.09.2013 15:32 19,3 C 18,3 C 72 % 1012,0 hPa 0,0 l/m 2 min 0 min 1,4 UV-I 515 W/m 0,0 km/h (0 Bft)
11.09.2013 15:34 19,4 C 18,3 C 72 % 1012,1 hPa 0,0 l/m 0 min 0 min 1,1 UV-I 250 W/m 10,3 km/h (2 Bft)
11.09.2013 15:36 19,4 C 18,3 C 69 % 1012,1 hPa 0,0 l/m 2 min 0 min 1,3 UV-I 359 W/m 12,9 km/h (3 Bft)
11.09.2013 15:38 19,3 C 18,3 C 71 % 1012,1 hPa 0,0 l/m 2 min 0 min 1,5 UV-I 446 W/m 15,4 km/h (3 Bft)
11.09.2013 15:40 19,5 C 18,9 C 71 % 1012,2 hPa 0,0 l/m 2 min 0 min 1,5 UV-I 624 W/m 7,7 km/h (2 Bft)
11.09.2013 15:42 19,4 C 18,3 C 68 % 1012,4 hPa 0,0 l/m 2 min 0 min 1,2 UV-I 550 W/m 18,0 km/h (3 Bft)
11.09.2013 15:44 19,1 C 18,3 C 69 % 1012,3 hPa 0,0 l/m 2 min 0 min 0,8 UV-I 571 W/m 10,3 km/h (2 Bft)
11.09.2013 15:46 18,7 C 17,2 C 68 % 1012,3 hPa 0,0 l/m 0 min 0 min 0,0 UV-I 137 W/m 15,4 km/h (3 Bft)
11.09.2013 15:48 18,2 C 16,7 C 69 % 1012,4 hPa 0,0 l/m 0 min 0 min 0,0 UV-I 118 W/m 10,3 km/h (2 Bft)
11.09.2013 15:50 17,8 C 16,1 C 70 % 1012,4 hPa 0,0 l/m 0 min 0 min 0,0 UV-I 98 W/m 18,0 km/h (3 Bft)
11.09.2013 15:52 17,4 C 16,1 C 71 % 1012,5 hPa 0,0 l/m 0 min 0 min 0,0 UV-I 72 W/m 0,0 km/h (0 Bft)
11.09.2013 15:54 17,1 C 15,6 C 73 % 1012,5 hPa 0,0 l/m 0 min 0 min 0,0 UV-I 58 W/m 12,9 km/h (3 Bft)
11.09.2013 15:56 16,8 C 15,6 C 75 % 1012,5 hPa 0,0 l/m 0 min 0 min 0,0 UV-I 56 W/m 12,9 km/h (3 Bft)
11.09.2013 15:58 16,6 C 15,0 C 75 % 1012,4 hPa 0,0 l/m 0 min 0 min 0,0 UV-I 81 W/m 10,3 km/h (2 Bft)
11.09.2013 16:00 16,4 C 15,0 C 77 % 1012,4 hPa 0,0 l/m 0 min 0 min 0,0 UV-I 123 W/m 15,4 km/h (3 Bft)
11.09.2013 16:02 16,2 C 15,0 C 78 % 1012,4 hPa 0,0 l/m 0 min 0 min 0,0 UV-I 88 W/m 20,6 km/h (4 Bft)
11.09.2013 16:06 16,0 C 14,4 C 78 % 1012,4 hPa 0,0 l/m 0 min 2 min 0,0 UV-I 28 W/m 12,9 km/h (3 Bft)
11.09.2013 16:08 15,9 C 13,9 C 80 % 1012,7 hPa 0,0 l/m 0 min 2 min 0,0 UV-I 28 W/m 7,7 km/h (2 Bft)
11.09.2013 16:10 15,8 C 12,8 C 81 % 1012,6 hPa 0,2 l/m 0 min 2 min 0,0 UV-I 33 W/m 15,4 km/h (3 Bft)
11.09.2013 16:12 15,6 C 12,8 C 84 % 1012,5 hPa 0,2 l/m 0 min 2 min 0,0 UV-I 44 W/m 5,1 km/h (1 Bft)
11.09.2013 16:14 15,2 C 12,2 C 85 % 1012,6 hPa 0,0 l/m 0 min 2 min 0,0 UV-I 56 W/m 2,6 km/h (1 Bft)
11.09.2013 16:16 14,9 C 12,2 C 86 % 1012,7 hPa 0,0 l/m 0 min 2 min 0,0 UV-I 58 W/m 12,9 km/h (3 Bft)
11.09.2013 16:18 14,7 C 12,2 C 88 % 1012,7 hPa 0,0 l/m 0 min 0 min 0,0 UV-I 56 W/m 0,0 km/h (0 Bft)
11.09.2013 16:20 14,5 C 12,8 C 89 % 1012,7 hPa 0,0 l/m 0 min 0 min 0,0 UV-I 54 W/m 0,0 km/h (0 Bft)
11.09.2013 16:22 14,4 C 12,8 C 89 % 1012,7 hPa 0,0 l/m 0 min 0 min 0,0 UV-I 60 W/m 0,0 km/h (0 Bft)
11.09.2013 16:24 14,3 C 12,8 C 90 % 1012,6 hPa 0,0 l/m 0 min 2 min 0,0 UV-I 107 W/m 0,0 km/h (0 Bft)
11.09.2013 16:26 14,2 C 12,8 C 90 % 1012,4 hPa 0,0 l/m 0 min 2 min 0,0 UV-I 116 W/m 0,0 km/h (0 Bft)
11.09.2013 16:28 14,3 C 12,8 C 91 % 1012,4 hPa 0,2 l/m 0 min 2 min 0,0 UV-I 104 W/m 0,0 km/h (0 Bft)
11.09.2013 16:30 14,2 C 12,8 C 92 % 1012,4 hPa 0,0 l/m 0 min 2 min 0,0 UV-I 100 W/m 0,0 km/h (0 Bft)
11.09.2013 16:32 14,2 C 12,8 C 91 % 1012,5 hPa 0,0 l/m 0 min 2 min 0,0 UV-I 74 W/m 0,0 km/h (0 Bft)
11.09.2013 16:34 14,2 C 12,2 C 91 % 1012,5 hPa 0,0 l/m 0 min 2 min 0,0 UV-I 62 W/m 0,0 km/h (0 Bft)
11.09.2013 16:36 14,2 C 12,8 C 92 % 1012,5 hPa 0,0 l/m 0 min 0 min 0,0 UV-I 53 W/m 0,0 km/h (0 Bft)
11.09.2013 16:38 14,2 C 12,8 C 92 % 1012,6 hPa 0,0 l/m 0 min 0 min 0,0 UV-I 42 W/m 0,0 km/h (0 Bft)
11.09.2013 16:40 14,2 C 12,8 C 92 % 1012,7 hPa 0,0 l/m 0 min 0 min 0,0 UV-I 46 W/m 0,0 km/h (0 Bft)
11.09.2013 16:42 14,2 C 12,8 C 93 % 1012,6 hPa 0,0 l/m 0 min 0 min 0,0 UV-I 40 W/m 0,0 km/h (0 Bft)
11.09.2013 16:44 14,2 C 12,8 C 93 % 1012,7 hPa 0,0 l/m 0 min 0 min 0,0 UV-I 19 W/m 0,0 km/h (0 Bft)
11.09.2013 16:46 14,1 C 12,8 C 93 % 1012,7 hPa 0,0 l/m 0 min 2 min 0,0 UV-I 12 W/m 0,0 km/h (0 Bft)
11.09.2013 16:48 14,2 C 12,8 C 93 % 1012,8 hPa 0,0 l/m 0 min 2 min 0,0 UV-I 11 W/m 0,0 km/h (0 Bft)
11.09.2013 16:50 14,1 C 12,8 C 93 % 1012,9 hPa 0,2 l/m 0 min 2 min 0,0 UV-I 11 W/m 0,0 km/h (0 Bft)
11.09.2013 16:52 13,9 C 12,2 C 94 % 1012,9 hPa 0,0 l/m 0 min 2 min 0,0 UV-I 12 W/m 12,9 km/h (3 Bft)
11.09.2013 16:54 13,9 C 12,2 C 94 % 1012,8 hPa 0,0 l/m 0 min 2 min 0,0 UV-I 16 W/m 0,0 km/h (0 Bft)
11.09.2013 16:56 13,9 C 12,2 C 94 % 1012,8 hPa 0,0 l/m 0 min 0 min 0,0 UV-I 47 W/m 7,7 km/h (2 Bft)
11.09.2013 16:58 13,8 C 12,2 C 93 % 1012,7 hPa 0,0 l/m 0 min 0 min 0,0 UV-I 46 W/m 10,3 km/h (2 Bft)
11.09.2013 17:00 13,8 C 12,2 C 93 % 1012,6 hPa 0,0 l/m 0 min 0 min 0,0 UV-I 30 W/m 0,0 km/h (0 Bft)
11.09.2013 17:02 13,7 C 12,2 C 93 % 1012,6 hPa 0,0 l/m 0 min 0 min 0,0 UV-I 21 W/m 0,0 km/h (0 Bft)
11.09.2013 17:06 13,5 C 11,7 C 93 % 1013,0 hPa 0,0 l/m 0 min 0 min 0,0 UV-I 12 W/m 0,0 km/h (0 Bft)
11.09.2013 17:08 13,4 C 11,7 C 92 % 1012,9 hPa 0,0 l/m 0 min 0 min 0,0 UV-I 23 W/m 0,0 km/h (0 Bft)
11.09.2013 17:10 13,4 C 11,7 C 93 % 1013,0 hPa 0,0 l/m 0 min 0 min 0,0 UV-I 23 W/m 0,0 km/h (0 Bft)
11.09.2013 17:12 13,3 C 11,7 C 93 % 1013,1 hPa 0,0 l/m 0 min 0 min 0,0 UV-I 26 W/m 0,0 km/h (0 Bft)
11.09.2013 17:14 13,3 C 11,7 C 93 % 1013,0 hPa 0,0 l/m 0 min 0 min 0,0 UV-I 44 W/m 12,9 km/h (3 Bft)
11.09.2013 17:16 13,4 C 12,2 C 93 % 1013,0 hPa 0,0 l/m 0 min 2 min 0,0 UV-I 49 W/m 0,0 km/h (0 Bft)
11.09.2013 17:18 13,6 C 12,2 C 93 % 1013,1 hPa 0,4 l/m 0 min 2 min 0,0 UV-I 56 W/m 10,3 km/h (2 Bft)
11.09.2013 17:20 13,7 C 12,2 C 94 % 1013,1 hPa 0,2 l/m 0 min 2 min 0,0 UV-I 49 W/m 0,0 km/h (0 Bft)
11.09.2013 17:22 13,8 C 12,2 C 94 % 1013,1 hPa 0,0 l/m 0 min 2 min 0,0 UV-I 60 W/m 0,0 km/h (0 Bft)
11.09.2013 17:24 13,9 C 12,8 C 94 % 1013,0 hPa 0,0 l/m 0 min 2 min 0,0 UV-I 102 W/m 0,0 km/h (0 Bft)
11.09.2013 17:26 14,2 C 12,8 C 95 % 1013,0 hPa 0,0 l/m 0 min 0 min 0,0 UV-I 93 W/m 0,0 km/h (0 Bft)
11.09.2013 17:28 14,2 C 12,8 C 95 % 1013,1 hPa 0,0 l/m 0 min 2 min 0,0 UV-I 67 W/m 0,0 km/h (0 Bft)
11.09.2013 17:30 14,2 C 12,8 C 95 % 1013,1 hPa 0,0 l/m 0 min 0 min 0,0 UV-I 39 W/m 2,6 km/h (1 Bft)
11.09.2013 17:32 14,0 C 12,8 C 95 % 1013,1 hPa 0,0 l/m 0 min 0 min 0,0 UV-I 32 W/m 0,0 km/h (0 Bft)
11.09.2013 17:34 13,8 C 12,2 C 95 % 1013,3 hPa 0,0 l/m 0 min 0 min 0,0 UV-I 35 W/m 0,0 km/h (0 Bft)
11.09.2013 17:36 13,7 C 12,2 C 95 % 1013,3 hPa 0,0 l/m 0 min 0 min 0,0 UV-I 33 W/m 0,0 km/h (0 Bft)
11.09.2013 17:38 13,7 C 12,2 C 95 % 1013,3 hPa 0,0 l/m 0 min 2 min 0,0 UV-I 33 W/m 0,0 km/h (0 Bft)
11.09.2013 17:40 13,6 C 12,2 C 95 % 1013,3 hPa 0,0 l/m 0 min 2 min 0,0 UV-I 35 W/m 0,0 km/h (0 Bft)
11.09.2013 17:42 13,6 C 12,2 C 95 % 1013,2 hPa 0,0 l/m 0 min 2 min 0,0 UV-I 49 W/m 0,0 km/h (0 Bft)
11.09.2013 17:44 13,5 C 12,2 C 95 % 1013,2 hPa 0,0 l/m 0 min 0 min 0,0 UV-I 63 W/m 0,0 km/h (0 Bft)
11.09.2013 17:46 13,4 C 12,2 C 96 % 1013,2 hPa 0,0 l/m 0 min 0 min 0,0 UV-I 70 W/m 0,0 km/h (0 Bft)
11.09.2013 17:48 13,5 C 12,2 C 96 % 1013,2 hPa 0,0 l/m 0 min 0 min 0,0 UV-I 56 W/m 0,0 km/h (0 Bft)
11.09.2013 17:50 13,5 C 12,2 C 96 % 1013,3 hPa 0,0 l/m 0 min 0 min 0,0 UV-I 58 W/m 0,0 km/h (0 Bft)
11.09.2013 17:52 13,5 C 12,2 C 96 % 1013,3 hPa 0,0 l/m 0 min 0 min 0,0 UV-I 62 W/m 0,0 km/h (0 Bft)
11.09.2013 17:54 13,6 C 12,8 C 96 % 1013,3 hPa 0,0 l/m 0 min 0 min 0,0 UV-I 74 W/m 0,0 km/h (0 Bft)
11.09.2013 17:56 13,7 C 12,8 C 96 % 1013,4 hPa 0,0 l/m 0 min 0 min 0,0 UV-I 70 W/m 0,0 km/h (0 Bft)
11.09.2013 17:58 13,7 C 12,8 C 96 % 1013,4 hPa 0,0 l/m 0 min 0 min 0,0 UV-I 60 W/m 0,0 km/h (0 Bft)
11.09.2013 18:00 13,8 C 12,8 C 96 % 1013,4 hPa 0,0 l/m 0 min 0 min 0,0 UV-I 40 W/m 0,0 km/h (0 Bft)
11.09.2013 18:02 13,8 C 12,8 C 96 % 1013,4 hPa 0,0 l/m 0 min 0 min 0,0 UV-I 56 W/m 0,0 km/h (0 Bft)
11.09.2013 18:06 13,7 C 12,8 C 96 % 1013,4 hPa 0,0 l/m 0 min 0 min 0,0 UV-I 86 W/m 0,0 km/h (0 Bft)
11.09.2013 18:08 13,7 C 12,8 C 96 % 1013,3 hPa 0,0 l/m 0 min 0 min 0,0 UV-I 84 W/m 0,0 km/h (0 Bft)
11.09.2013 18:10 13,7 C 12,8 C 96 % 1013,3 hPa 0,0 l/m 0 min 0 min 0,0 UV-I 86 W/m 0,0 km/h (0 Bft)
11.09.2013 18:12 13,8 C 12,8 C 96 % 1013,3 hPa 0,0 l/m 0 min 0 min 0,0 UV-I 86 W/m 0,0 km/h (0 Bft)
11.09.2013 18:14 13,9 C 12,8 C 96 % 1013,3 hPa 0,0 l/m 0 min 0 min 0,0 UV-I 90 W/m 0,0 km/h (0 Bft)
11.09.2013 18:16 13,9 C 12,8 C 96 % 1013,2 hPa 0,0 l/m 0 min 0 min 0,0 UV-I 135 W/m 0,0 km/h (0 Bft)
11.09.2013 18:18 13,9 C 12,8 C 96 % 1013,2 hPa 0,0 l/m 0 min 0 min 0,0 UV-I 53 W/m 0,0 km/h (0 Bft)
11.09.2013 18:20 14,0 C 12,8 C 96 % 1013,3 hPa 0,0 l/m 0 min 0 min 0,0 UV-I 46 W/m 0,0 km/h (0 Bft)
11.09.2013 18:22 14,0 C 12,8 C 96 % 1013,3 hPa 0,0 l/m 0 min 0 min 0,0 UV-I 44 W/m 0,0 km/h (0 Bft)
11.09.2013 18:24 13,9 C 12,8 C 96 % 1013,3 hPa 0,0 l/m 0 min 2 min 0,0 UV-I 40 W/m 0,0 km/h (0 Bft)
11.09.2013 18:26 13,9 C 12,8 C 96 % 1013,3 hPa 0,0 l/m 0 min 2 min 0,0 UV-I 37 W/m 0,0 km/h (0 Bft)
11.09.2013 18:28 13,9 C 12,8 C 96 % 1013,3 hPa 0,0 l/m 0 min 0 min 0,0 UV-I 35 W/m 0,0 km/h (0 Bft)
11.09.2013 18:30 13,8 C 12,2 C 96 % 1013,2 hPa 0,0 l/m 0 min 0 min 0,0 UV-I 32 W/m 0,0 km/h (0 Bft)
11.09.2013 18:32 13,8 C 12,2 C 96 % 1013,3 hPa 0,0 l/m 0 min 0 min 0,0 UV-I 28 W/m 0,0 km/h (0 Bft)
11.09.2013 18:34 13,8 C 12,2 C 96 % 1013,2 hPa 0,0 l/m 0 min 0 min 0,0 UV-I 25 W/m 0,0 km/h (0 Bft)
11.09.2013 18:36 13,8 C 12,2 C 96 % 1013,3 hPa 0,0 l/m 0 min 0 min 0,0 UV-I 25 W/m 0,0 km/h (0 Bft)
11.09.2013 18:38 13,8 C 12,2 C 96 % 1013,3 hPa 0,0 l/m 0 min 0 min 0,0 UV-I 26 W/m 0,0 km/h (0 Bft)
11.09.2013 18:40 13,8 C 12,8 C 96 % 1013,3 hPa 0,0 l/m 0 min 0 min 0,0 UV-I 28 W/m 0,0 km/h (0 Bft)
11.09.2013 18:42 13,8 C 12,2 C 96 % 1013,3 hPa 0,0 l/m 0 min 0 min 0,0 UV-I 26 W/m 0,0 km/h (0 Bft)
11.09.2013 18:44 13,8 C 12,2 C 96 % 1013,2 hPa 0,0 l/m 0 min 0 min 0,0 UV-I 25 W/m 0,0 km/h (0 Bft)
11.09.2013 18:46 13,7 C 12,2 C 96 % 1013,2 hPa 0,0 l/m 0 min 0 min 0,0 UV-I 25 W/m 0,0 km/h (0 Bft)
11.09.2013 18:48 13,7 C 12,2 C 96 % 1013,2 hPa 0,0 l/m 0 min 0 min 0,0 UV-I 25 W/m 2,6 km/h (1 Bft)
11.09.2013 18:50 13,7 C 12,2 C 96 % 1013,2 hPa 0,0 l/m 0 min 0 min 0,0 UV-I 25 W/m 2,6 km/h (1 Bft)
11.09.2013 18:52 13,7 C 12,2 C 96 % 1013,2 hPa 0,0 l/m 0 min 0 min 0,0 UV-I 37 W/m 0,0 km/h (0 Bft)
11.09.2013 18:54 13,7 C 12,2 C 96 % 1013,2 hPa 0,0 l/m 0 min 0 min 0,0 UV-I 32 W/m 0,0 km/h (0 Bft)
11.09.2013 18:56 13,7 C 12,2 C 96 % 1013,2 hPa 0,0 l/m 0 min 2 min 0,0 UV-I 28 W/m 0,0 km/h (0 Bft)
11.09.2013 18:58 13,8 C 12,2 C 96 % 1013,3 hPa 0,0 l/m 0 min 0 min 0,0 UV-I 26 W/m 0,0 km/h (0 Bft)
11.09.2013 19:00 13,7 C 12,2 C 96 % 1013,2 hPa 0,0 l/m 0 min 0 min 0,0 UV-I 25 W/m 0,0 km/h (0 Bft)
11.09.2013 19:02 13,7 C 12,2 C 96 % 1013,2 hPa 0,0 l/m 0 min 0 min 0,0 UV-I 23 W/m 0,0 km/h (0 Bft)
11.09.2013 19:06 13,7 C 12,2 C 96 % 1013,2 hPa 0,0 l/m 0 min 2 min 0,0 UV-I 26 W/m 0,0 km/h (0 Bft)
11.09.2013 19:08 13,8 C 12,8 C 96 % 1013,2 hPa 0,0 l/m 0 min 2 min 0,0 UV-I 28 W/m 0,0 km/h (0 Bft)
11.09.2013 19:10 13,8 C 12,8 C 96 % 1013,2 hPa 0,0 l/m 0 min 2 min 0,0 UV-I 32 W/m 0,0 km/h (0 Bft)
11.09.2013 19:12 13,8 C 12,8 C 96 % 1013,3 hPa 0,0 l/m 0 min 2 min 0,0 UV-I 32 W/m 0,0 km/h (0 Bft)
11.09.2013 19:14 13,8 C 12,8 C 96 % 1013,2 hPa 0,0 l/m 0 min 2 min 0,0 UV-I 32 W/m 0,0 km/h (0 Bft)
11.09.2013 19:16 13,9 C 12,8 C 96 % 1013,2 hPa 0,0 l/m 0 min 2 min 0,0 UV-I 26 W/m 0,0 km/h (0 Bft)
11.09.2013 19:18 13,9 C 12,8 C 96 % 1013,2 hPa 0,0 l/m 0 min 2 min 0,0 UV-I 25 W/m 0,0 km/h (0 Bft)
11.09.2013 19:20 13,9 C 12,8 C 96 % 1013,2 hPa 0,0 l/m 0 min 0 min 0,0 UV-I 25 W/m 0,0 km/h (0 Bft)
11.09.2013 19:22 13,9 C 12,8 C 96 % 1013,2 hPa 0,0 l/m 0 min 0 min 0,0 UV-I 23 W/m 0,0 km/h (0 Bft)
11.09.2013 19:24 13,9 C 12,8 C 96 % 1013,2 hPa 0,0 l/m 0 min 0 min 0,0 UV-I 23 W/m 0,0 km/h (0 Bft)
11.09.2013 19:26 13,9 C 12,8 C 97 % 1013,2 hPa 0,0 l/m 0 min 0 min 0,0 UV-I 21 W/m 0,0 km/h (0 Bft)
11.09.2013 19:28 13,9 C 12,8 C 97 % 1013,2 hPa 0,0 l/m 0 min 0 min 0,0 UV-I 16 W/m 0,0 km/h (0 Bft)
11.09.2013 19:30 13,9 C 12,8 C 96 % 1013,2 hPa 0,0 l/m 0 min 0 min 0,0 UV-I 16 W/m 2,6 km/h (1 Bft)
11.09.2013 19:32 13,9 C 12,8 C 96 % 1013,2 hPa 0,0 l/m 0 min 0 min 0,0 UV-I 16 W/m 0,0 km/h (0 Bft)
11.09.2013 19:34 13,8 C 12,2 C 96 % 1013,3 hPa 0,0 l/m 0 min 0 min 0,0 UV-I 16 W/m 0,0 km/h (0 Bft)
11.09.2013 19:36 13,8 C 12,2 C 96 % 1013,2 hPa 0,0 l/m 0 min 0 min 0,0 UV-I 16 W/m 0,0 km/h (0 Bft)
11.09.2013 19:38 13,8 C 12,2 C 96 % 1013,2 hPa 0,0 l/m 0 min 0 min 0,0 UV-I 14 W/m 0,0 km/h (0 Bft)
11.09.2013 19:40 13,8 C 12,2 C 96 % 1013,3 hPa 0,0 l/m 0 min 0 min 0,0 UV-I 11 W/m 0,0 km/h (0 Bft)
11.09.2013 19:42 13,8 C 12,2 C 96 % 1013,3 hPa 0,0 l/m 0 min 2 min 0,0 UV-I 9 W/m 0,0 km/h (0 Bft)
11.09.2013 19:44 13,7 C 12,2 C 96 % 1013,2 hPa 0,0 l/m 0 min 2 min 0,0 UV-I 7 W/m 0,0 km/h (0 Bft)
11.09.2013 19:46 13,7 C 12,2 C 96 % 1013,3 hPa 0,0 l/m 0 min 2 min 0,0 UV-I 5 W/m 0,0 km/h (0 Bft)
11.09.2013 19:48 13,7 C 12,2 C 96 % 1013,2 hPa 0,0 l/m 0 min 0 min 0,0 UV-I 5 W/m 0,0 km/h (0 Bft)
11.09.2013 19:50 13,7 C 12,2 C 96 % 1013,3 hPa 0,0 l/m 0 min 0 min 0,0 UV-I 0 W/m 0,0 km/h (0 Bft)
11.09.2013 19:52 13,6 C 12,2 C 96 % 1013,3 hPa 0,0 l/m 0 min 0 min 0,0 UV-I 0 W/m 0,0 km/h (0 Bft)
11.09.2013 19:54 13,6 C 12,2 C 96 % 1013,3 hPa 0,0 l/m 0 min 0 min 0,0 UV-I 0 W/m 0,0 km/h (0 Bft)
11.09.2013 19:56 13,6 C 12,2 C 96 % 1013,3 hPa 0,0 l/m 0 min 0 min 0,0 UV-I 0 W/m 2,6 km/h (1 Bft)
11.09.2013 19:58 13,6 C 12,2 C 96 % 1013,2 hPa 0,0 l/m 0 min 0 min 0,0 UV-I 0 W/m 0,0 km/h (0 Bft)
11.09.2013 20:00 13,5 C 12,2 C 96 % 1013,2 hPa 0,0 l/m 0 min 0 min 0,0 UV-I 0 W/m 0,0 km/h (0 Bft)
11.09.2013 20:02 13,5 C 12,2 C 96 % 1013,2 hPa 0,0 l/m 0 min 0 min 0,0 UV-I 0 W/m 0,0 km/h (0 Bft)
11.09.2013 20:06 13,5 C 12,2 C 96 % 1013,3 hPa 0,0 l/m 0 min 0 min 0,0 UV-I 0 W/m 0,0 km/h (0 Bft)
11.09.2013 20:08 13,4 C 12,2 C 96 % 1013,3 hPa 0,0 l/m 0 min 0 min 0,0 UV-I 0 W/m 0,0 km/h (0 Bft)
11.09.2013 20:10 13,4 C 12,2 C 96 % 1013,3 hPa 0,0 l/m 0 min 0 min 0,0 UV-I 0 W/m 0,0 km/h (0 Bft)
11.09.2013 20:12 13,4 C 12,2 C 96 % 1013,3 hPa 0,0 l/m 0 min 0 min 0,0 UV-I 0 W/m 0,0 km/h (0 Bft)
11.09.2013 20:14 13,4 C 12,2 C 96 % 1013,3 hPa 0,0 l/m 0 min 0 min 0,0 UV-I 0 W/m 2,6 km/h (1 Bft)
11.09.2013 20:16 13,4 C 12,2 C 96 % 1013,3 hPa 0,0 l/m 0 min 0 min 0,0 UV-I 0 W/m 0,0 km/h (0 Bft)
11.09.2013 20:18 13,4 C 12,2 C 96 % 1013,3 hPa 0,0 l/m 0 min 2 min 0,0 UV-I 0 W/m 0,0 km/h (0 Bft)
11.09.2013 20:20 13,3 C 12,2 C 96 % 1013,4 hPa 0,0 l/m 0 min 2 min 0,0 UV-I 0 W/m 0,0 km/h (0 Bft)
11.09.2013 20:22 13,3 C 12,2 C 96 % 1013,4 hPa 0,0 l/m 0 min 2 min 0,0 UV-I 0 W/m 0,0 km/h (0 Bft)
11.09.2013 20:24 13,3 C 12,2 C 96 % 1013,4 hPa 0,0 l/m 0 min 2 min 0,0 UV-I 0 W/m 0,0 km/h (0 Bft)
11.09.2013 20:26 13,3 C 12,2 C 96 % 1013,4 hPa 0,0 l/m 0 min 0 min 0,0 UV-I 0 W/m 0,0 km/h (0 Bft)
11.09.2013 20:28 13,3 C 12,2 C 96 % 1013,3 hPa 0,0 l/m 0 min 0 min 0,0 UV-I 0 W/m 0,0 km/h (0 Bft)
11.09.2013 20:30 13,3 C 12,2 C 96 % 1013,3 hPa 0,0 l/m 0 min 0 min 0,0 UV-I 0 W/m 0,0 km/h (0 Bft)
11.09.2013 20:32 13,3 C 12,2 C 96 % 1013,3 hPa 0,0 l/m 0 min 0 min 0,0 UV-I 0 W/m 0,0 km/h (0 Bft)
11.09.2013 20:34 13,3 C 12,2 C 96 % 1013,3 hPa 0,0 l/m 0 min 0 min 0,0 UV-I 0 W/m 0,0 km/h (0 Bft)
11.09.2013 20:36 13,4 C 12,2 C 96 % 1013,4 hPa 0,0 l/m 0 min 0 min 0,0 UV-I 0 W/m 0,0 km/h (0 Bft)
11.09.2013 20:38 13,3 C 12,2 C 96 % 1013,4 hPa 0,0 l/m 0 min 0 min 0,0 UV-I 0 W/m 0,0 km/h (0 Bft)
11.09.2013 20:40 13,3 C 12,2 C 96 % 1013,4 hPa 0,0 l/m 0 min 0 min 0,0 UV-I 0 W/m 0,0 km/h (0 Bft)
11.09.2013 20:42 13,3 C 12,2 C 96 % 1013,4 hPa 0,0 l/m 0 min 0 min 0,0 UV-I 0 W/m 0,0 km/h (0 Bft)
11.09.2013 20:44 13,3 C 11,7 C 96 % 1013,4 hPa 0,0 l/m 0 min 0 min 0,0 UV-I 0 W/m 0,0 km/h (0 Bft)
11.09.2013 20:46 13,3 C 11,7 C 96 % 1013,4 hPa 0,0 l/m 0 min 0 min 0,0 UV-I 0 W/m 0,0 km/h (0 Bft)
11.09.2013 20:48 13,3 C 11,7 C 96 % 1013,4 hPa 0,0 l/m 0 min 0 min 0,0 UV-I 0 W/m 0,0 km/h (0 Bft)
11.09.2013 20:50 13,3 C 11,7 C 96 % 1013,5 hPa 0,0 l/m 0 min 0 min 0,0 UV-I 0 W/m 0,0 km/h (0 Bft)
11.09.2013 20:52 13,3 C 11,7 C 96 % 1013,5 hPa 0,0 l/m 0 min 0 min 0,0 UV-I 0 W/m 0,0 km/h (0 Bft)
11.09.2013 20:54 13,2 C 11,7 C 96 % 1013,4 hPa 0,0 l/m 0 min 0 min 0,0 UV-I 0 W/m 0,0 km/h (0 Bft)
11.09.2013 20:56 13,2 C 11,7 C 96 % 1013,5 hPa 0,0 l/m 0 min 0 min 0,0 UV-I 0 W/m 0,0 km/h (0 Bft)
11.09.2013 20:58 13,2 C 11,7 C 96 % 1013,5 hPa 0,0 l/m 0 min 0 min 0,0 UV-I 0 W/m 0,0 km/h (0 Bft)
11.09.2013 21:00 13,2 C 11,7 C 96 % 1013,5 hPa 0,0 l/m 0 min 0 min 0,0 UV-I 0 W/m 0,0 km/h (0 Bft)
11.09.2013 21:02 13,2 C 11,7 C 96 % 1013,5 hPa 0,0 l/m 0 min 0 min 0,0 UV-I 0 W/m 0,0 km/h (0 Bft)
11.09.2013 21:06 13,1 C 11,7 C 96 % 1013,6 hPa 0,0 l/m 0 min 0 min 0,0 UV-I 0 W/m 0,0 km/h (0 Bft)
11.09.2013 21:08 13,1 C 11,7 C 96 % 1013,7 hPa 0,0 l/m 0 min 0 min 0,0 UV-I 0 W/m 0,0 km/h (0 Bft)
11.09.2013 21:10 13,1 C 11,7 C 96 % 1013,6 hPa 0,0 l/m 0 min 0 min 0,0 UV-I 0 W/m 0,0 km/h (0 Bft)
11.09.2013 21:12 13,1 C 11,7 C 96 % 1013,6 hPa 0,0 l/m 0 min 0 min 0,0 UV-I 0 W/m 0,0 km/h (0 Bft)
11.09.2013 21:14 13,1 C 11,7 C 96 % 1013,6 hPa 0,0 l/m 0 min 0 min 0,0 UV-I 0 W/m 0,0 km/h (0 Bft)
11.09.2013 21:16 13,1 C 11,7 C 96 % 1013,6 hPa 0,0 l/m 0 min 0 min 0,0 UV-I 0 W/m 0,0 km/h (0 Bft)
11.09.2013 21:18 13,1 C 11,7 C 96 % 1013,7 hPa 0,0 l/m 0 min 0 min 0,0 UV-I 0 W/m 0,0 km/h (0 Bft)
11.09.2013 21:20 13,1 C 11,7 C 96 % 1013,7 hPa 0,0 l/m 0 min 0 min 0,0 UV-I 0 W/m 0,0 km/h (0 Bft)
11.09.2013 21:22 13,1 C 11,7 C 96 % 1013,7 hPa 0,0 l/m 0 min 0 min 0,0 UV-I 0 W/m 0,0 km/h (0 Bft)
11.09.2013 21:24 13,2 C 11,7 C 96 % 1013,8 hPa 0,0 l/m 0 min 2 min 0,0 UV-I 0 W/m 0,0 km/h (0 Bft)
11.09.2013 21:26 13,2 C 11,7 C 96 % 1013,7 hPa 0,0 l/m 0 min 2 min 0,0 UV-I 0 W/m 0,0 km/h (0 Bft)
11.09.2013 21:28 13,2 C 11,7 C 96 % 1013,8 hPa 0,0 l/m 0 min 0 min 0,0 UV-I 0 W/m 2,6 km/h (1 Bft)
11.09.2013 21:30 13,2 C 11,7 C 96 % 1013,8 hPa 0,0 l/m 0 min 0 min 0,0 UV-I 0 W/m 0,0 km/h (0 Bft)
11.09.2013 21:32 13,2 C 11,7 C 96 % 1013,8 hPa 0,0 l/m 0 min 0 min 0,0 UV-I 0 W/m 0,0 km/h (0 Bft)
11.09.2013 21:34 13,2 C 11,7 C 97 % 1013,8 hPa 0,0 l/m 0 min 2 min 0,0 UV-I 0 W/m 0,0 km/h (0 Bft)
11.09.2013 21:36 13,2 C 11,7 C 97 % 1013,8 hPa 0,0 l/m 0 min 2 min 0,0 UV-I 0 W/m 0,0 km/h (0 Bft)
11.09.2013 21:38 13,2 C 11,7 C 97 % 1013,8 hPa 0,0 l/m 0 min 2 min 0,0 UV-I 0 W/m 0,0 km/h (0 Bft)
11.09.2013 21:40 13,2 C 11,7 C 97 % 1013,7 hPa 0,2 l/m 0 min 2 min 0,0 UV-I 0 W/m 0,0 km/h (0 Bft)
11.09.2013 21:42 13,2 C 11,7 C 97 % 1013,8 hPa 0,0 l/m 0 min 0 min 0,0 UV-I 0 W/m 0,0 km/h (0 Bft)
11.09.2013 21:44 13,2 C 11,7 C 97 % 1013,8 hPa 0,0 l/m 0 min 0 min 0,0 UV-I 0 W/m 0,0 km/h (0 Bft)
11.09.2013 21:46 13,2 C 11,7 C 97 % 1013,9 hPa 0,0 l/m 0 min 2 min 0,0 UV-I 0 W/m 0,0 km/h (0 Bft)
11.09.2013 21:48 13,2 C 11,7 C 97 % 1013,9 hPa 0,0 l/m 0 min 2 min 0,0 UV-I 0 W/m 0,0 km/h (0 Bft)
11.09.2013 21:50 13,2 C 11,7 C 97 % 1013,8 hPa 0,0 l/m 0 min 2 min 0,0 UV-I 0 W/m 0,0 km/h (0 Bft)
11.09.2013 21:52 13,2 C 11,7 C 97 % 1013,8 hPa 0,0 l/m 0 min 2 min 0,0 UV-I 0 W/m 0,0 km/h (0 Bft)
11.09.2013 21:54 13,2 C 11,7 C 97 % 1013,8 hPa 0,0 l/m 0 min 2 min 0,0 UV-I 0 W/m 12,9 km/h (3 Bft)
11.09.2013 21:56 13,2 C 12,2 C 97 % 1013,8 hPa 0,0 l/m 0 min 0 min 0,0 UV-I 0 W/m 2,6 km/h (1 Bft)
11.09.2013 21:58 13,3 C 11,7 C 97 % 1013,8 hPa 0,0 l/m 0 min 0 min 0,0 UV-I 0 W/m 0,0 km/h (0 Bft)
11.09.2013 22:00 13,3 C 11,7 C 97 % 1013,7 hPa 0,0 l/m 0 min 0 min 0,0 UV-I 0 W/m 0,0 km/h (0 Bft)
11.09.2013 22:02 13,3 C 11,7 C 97 % 1013,8 hPa 0,0 l/m 0 min 2 min 0,0 UV-I 0 W/m 2,6 km/h (1 Bft)
11.09.2013 22:06 13,3 C 11,7 C 97 % 1013,8 hPa 0,0 l/m 0 min 0 min 0,0 UV-I 0 W/m 0,0 km/h (0 Bft)
11.09.2013 22:08 13,3 C 11,7 C 97 % 1013,8 hPa 0,0 l/m 0 min 2 min 0,0 UV-I 0 W/m 0,0 km/h (0 Bft)
11.09.2013 22:10 13,3 C 11,7 C 97 % 1013,9 hPa 0,0 l/m 0 min 2 min 0,0 UV-I 0 W/m 0,0 km/h (0 Bft)
11.09.2013 22:12 13,3 C 11,7 C 97 % 1013,8 hPa 0,0 l/m 0 min 2 min 0,0 UV-I 0 W/m 5,1 km/h (1 Bft)
11.09.2013 22:14 13,3 C 11,7 C 96 % 1013,8 hPa 0,0 l/m 0 min 2 min 0,0 UV-I 0 W/m 0,0 km/h (0 Bft)
11.09.2013 22:16 13,3 C 11,7 C 96 % 1013,8 hPa 0,0 l/m 0 min 0 min 0,0 UV-I 0 W/m 0,0 km/h (0 Bft)
11.09.2013 22:18 13,3 C 11,7 C 96 % 1013,8 hPa 0,0 l/m 0 min 0 min 0,0 UV-I 0 W/m 2,6 km/h (1 Bft)
11.09.2013 22:20 13,3 C 11,7 C 96 % 1013,9 hPa 0,0 l/m 0 min 0 min 0,0 UV-I 0 W/m 0,0 km/h (0 Bft)
11.09.2013 22:22 13,3 C 11,7 C 96 % 1013,8 hPa 0,0 l/m 0 min 0 min 0,0 UV-I 0 W/m 0,0 km/h (0 Bft)
11.09.2013 22:24 13,3 C 11,7 C 96 % 1013,8 hPa 0,0 l/m 0 min 0 min 0,0 UV-I 0 W/m 0,0 km/h (0 Bft)
11.09.2013 22:26 13,3 C 11,7 C 96 % 1013,8 hPa 0,0 l/m 0 min 0 min 0,0 UV-I 0 W/m 5,1 km/h (1 Bft)
11.09.2013 22:28 13,3 C 11,7 C 96 % 1013,8 hPa 0,0 l/m 0 min 0 min 0,0 UV-I 0 W/m 0,0 km/h (0 Bft)
11.09.2013 22:30 13,3 C 11,7 C 96 % 1013,8 hPa 0,0 l/m 0 min 0 min 0,0 UV-I 0 W/m 0,0 km/h (0 Bft)
11.09.2013 22:32 13,3 C 11,7 C 96 % 1013,8 hPa 0,0 l/m 0 min 2 min 0,0 UV-I 0 W/m 0,0 km/h (0 Bft)
11.09.2013 22:34 13,3 C 11,7 C 96 % 1013,8 hPa 0,0 l/m 0 min 0 min 0,0 UV-I 0 W/m 0,0 km/h (0 Bft)
11.09.2013 22:36 13,3 C 11,7 C 96 % 1013,9 hPa 0,0 l/m 0 min 2 min 0,0 UV-I 0 W/m 0,0 km/h (0 Bft)
11.09.2013 22:38 13,3 C 11,7 C 96 % 1013,9 hPa 0,0 l/m 0 min 2 min 0,0 UV-I 0 W/m 0,0 km/h (0 Bft)
11.09.2013 22:40 13,3 C 11,7 C 96 % 1013,8 hPa 0,0 l/m 0 min 0 min 0,0 UV-I 0 W/m 0,0 km/h (0 Bft)
11.09.2013 22:42 13,3 C 11,7 C 96 % 1013,8 hPa 0,0 l/m 0 min 2 min 0,0 UV-I 0 W/m 0,0 km/h (0 Bft)
11.09.2013 22:44 13,3 C 11,7 C 96 % 1013,8 hPa 0,0 l/m 0 min 0 min 0,0 UV-I 0 W/m 0,0 km/h (0 Bft)
11.09.2013 22:46 13,2 C 11,7 C 96 % 1013,8 hPa 0,0 l/m 0 min 0 min 0,0 UV-I 0 W/m 0,0 km/h (0 Bft)
11.09.2013 22:48 13,2 C 11,7 C 96 % 1013,8 hPa 0,0 l/m 0 min 0 min 0,0 UV-I 0 W/m 0,0 km/h (0 Bft)
11.09.2013 22:50 13,2 C 11,7 C 96 % 1013,8 hPa 0,0 l/m 0 min 0 min 0,0 UV-I 0 W/m 0,0 km/h (0 Bft)
11.09.2013 22:52 13,2 C 11,7 C 96 % 1013,8 hPa 0,0 l/m 0 min 2 min 0,0 UV-I 0 W/m 0,0 km/h (0 Bft)
11.09.2013 22:54 13,3 C 11,7 C 96 % 1013,9 hPa 0,0 l/m 0 min 2 min 0,0 UV-I 0 W/m 0,0 km/h (0 Bft)
11.09.2013 22:56 13,2 C 11,7 C 96 % 1013,9 hPa 0,0 l/m 0 min 0 min 0,0 UV-I 0 W/m 0,0 km/h (0 Bft)
11.09.2013 22:58 13,2 C 11,7 C 96 % 1013,9 hPa 0,0 l/m 0 min 0 min 0,0 UV-I 0 W/m 5,1 km/h (1 Bft)
11.09.2013 23:00 13,2 C 11,7 C 96 % 1014,0 hPa 0,0 l/m 0 min 2 min 0,0 UV-I 0 W/m 5,1 km/h (1 Bft)
11.09.2013 23:02 13,3 C 11,7 C 96 % 1014,0 hPa 0,0 l/m 0 min 2 min 0,0 UV-I 0 W/m 0,0 km/h (0 Bft)
11.09.2013 23:06 13,3 C 11,7 C 96 % 1014,1 hPa 0,2 l/m 0 min 2 min 0,0 UV-I 0 W/m 7,7 km/h (2 Bft)
11.09.2013 23:08 13,3 C 11,7 C 96 % 1014,0 hPa 0,2 l/m 0 min 2 min 0,0 UV-I 0 W/m 10,3 km/h (2 Bft)
11.09.2013 23:10 13,2 C 11,7 C 96 % 1014,1 hPa 0,2 l/m 0 min 2 min 0,0 UV-I 0 W/m 10,3 km/h (2 Bft)
11.09.2013 23:15 13,2 C 11,7 C 96 % 1014,1 hPa 0,0 l/m 0 min 2 min 0,0 UV-I 0 W/m 10,3 km/h (2 Bft)
11.09.2013 23:18 13,2 C 11,7 C 96 % 1014,0 hPa 0,0 l/m 0 min 2 min 0,0 UV-I 0 W/m 0,0 km/h (0 Bft)
11.09.2013 23:20 13,2 C 11,7 C 96 % 1014,0 hPa 0,0 l/m 0 min 0 min 0,0 UV-I 0 W/m 0,0 km/h (0 Bft)
11.09.2013 23:22 13,2 C 11,7 C 96 % 1014,0 hPa 0,0 l/m 0 min 0 min 0,0 UV-I 0 W/m 0,0 km/h (0 Bft)
11.09.2013 23:24 13,2 C 11,7 C 96 % 1013,9 hPa 0,0 l/m 0 min 0 min 0,0 UV-I 0 W/m 0,0 km/h (0 Bft)
11.09.2013 23:26 13,2 C 11,7 C 96 % 1013,9 hPa 0,0 l/m 0 min 0 min 0,0 UV-I 0 W/m 0,0 km/h (0 Bft)
11.09.2013 23:28 13,1 C 11,7 C 96 % 1013,9 hPa 0,0 l/m 0 min 0 min 0,0 UV-I 0 W/m 0,0 km/h (0 Bft)
11.09.2013 23:30 13,1 C 11,7 C 96 % 1013,9 hPa 0,0 l/m 0 min 0 min 0,0 UV-I 0 W/m 0,0 km/h (0 Bft)
11.09.2013 23:32 13,1 C 11,7 C 96 % 1013,9 hPa 0,0 l/m 0 min 0 min 0,0 UV-I 0 W/m 0,0 km/h (0 Bft)
11.09.2013 23:34 13,1 C 11,7 C 96 % 1014,0 hPa 0,0 l/m 0 min 0 min 0,0 UV-I 0 W/m 0,0 km/h (0 Bft)
11.09.2013 23:36 13,1 C 11,7 C 96 % 1014,0 hPa 0,0 l/m 0 min 0 min 0,0 UV-I 0 W/m 0,0 km/h (0 Bft)
11.09.2013 23:38 13,0 C 11,7 C 96 % 1014,0 hPa 0,0 l/m 0 min 0 min 0,0 UV-I 0 W/m 0,0 km/h (0 Bft)
11.09.2013 23:40 13,0 C 11,7 C 96 % 1014,0 hPa 0,0 l/m 0 min 0 min 0,0 UV-I 0 W/m 0,0 km/h (0 Bft)
11.09.2013 23:42 13,0 C 11,7 C 97 % 1014,0 hPa 0,0 l/m 0 min 0 min 0,0 UV-I 0 W/m 0,0 km/h (0 Bft)
11.09.2013 23:44 12,9 C 11,7 C 97 % 1013,9 hPa 0,0 l/m 0 min 2 min 0,0 UV-I 0 W/m 0,0 km/h (0 Bft)
11.09.2013 23:46 12,9 C 11,7 C 97 % 1013,9 hPa 0,0 l/m 0 min 2 min 0,0 UV-I 0 W/m 0,0 km/h (0 Bft)
11.09.2013 23:48 12,9 C 11,7 C 97 % 1014,0 hPa 0,0 l/m 0 min 2 min 0,0 UV-I 0 W/m 2,6 km/h (1 Bft)
11.09.2013 23:50 12,9 C 11,7 C 97 % 1014,0 hPa 0,0 l/m 0 min 2 min 0,0 UV-I 0 W/m 2,6 km/h (1 Bft)
11.09.2013 23:52 12,9 C 11,7 C 97 % 1014,0 hPa 0,0 l/m 0 min 2 min 0,0 UV-I 0 W/m 0,0 km/h (0 Bft)
11.09.2013 23:54 12,9 C 11,7 C 97 % 1014,0 hPa 0,0 l/m 0 min 0 min 0,0 UV-I 0 W/m 7,7 km/h (2 Bft)
11.09.2013 23:56 12,9 C 11,7 C 97 % 1014,0 hPa 0,0 l/m 0 min 0 min 0,0 UV-I 0 W/m 0,0 km/h (0 Bft)
11.09.2013 23:58 13,0 C 11,7 C 97 % 1014,1 hPa 0,0 l/m 0 min 0 min 0,0 UV-I 0 W/m 0,0 km/h (0 Bft)
_ Min-Zeit 07:08 06:56 15:16 01:44 - - - - - 03:40
Minimum _ 10,6 C 9,4 C 68 % 1009,0 hPa - - - - - 0,0 km/h (0 Bft)
_ Max-Zeit 14:28 14:28 06:28 23:06 03:52 08:12 00:00 14:24 12:48 00:20
Maximum _ 19,6 C 18,9 C 99 % 1014,1 hPa 0,4 l/m 2 min 2 min 3,2 UV-I 786 W/m 36,0 km/h
S-SO (5 Bft)
Durchschnitt _ 13,5 C 12,4 C 94 % 1012,0 hPa #5,8 l/m #1:38 h #6:40 h 1,4 UV-I 173 W/m 5,8 km/h (2 Bft)
© 2013 W. Hausmann